Time,TemperatureF,DewpointF,PressureIn,WindDirection,WindDirectionDegrees,WindSpeedMPH,WindSpeedGustMPH,Humidity,HourlyPrecipIn,Conditions,Clouds,dailyrainin,SoftwareType,DateUTC
2012-11-27 00:00:00,34.2,-15.0,30.36,East,90,2.0,2.0,11,0.00,,,0.01,meteohub,2012-11-27 05:00:00,
2012-11-27 00:01:00,34.2,-15.0,30.36,East,90,2.0,2.0,11,0.00,,,0.01,meteohub,2012-11-27 05:01:00,
2012-11-27 00:05:00,34.2,-15.0,30.36,East,90,3.0,3.0,11,0.00,,,0.00,meteohub,2012-11-27 05:05:00,
2012-11-27 00:06:00,34.2,-15.0,30.36,East,90,3.0,3.0,11,0.00,,,0.00,meteohub,2012-11-27 05:06:00,
2012-11-27 00:07:00,34.2,-15.0,30.36,East,90,2.0,3.0,11,0.00,,,0.00,meteohub,2012-11-27 05:07:00,
2012-11-27 00:11:00,34.0,-15.0,30.36,East,90,2.0,3.0,11,0.00,,,0.00,meteohub,2012-11-27 05:11:00,
2012-11-27 00:12:00,34.0,-15.0,30.35,East,90,2.0,3.0,11,0.00,,,0.00,meteohub,2012-11-27 05:12:00,
2012-11-27 00:16:00,34.0,-15.0,30.35,East,90,2.0,3.0,11,0.00,,,0.00,meteohub,2012-11-27 05:16:00,
2012-11-27 00:17:00,34.0,-15.0,30.35,East,90,2.0,3.0,11,0.00,,,0.00,meteohub,2012-11-27 05:17:00,
2012-11-27 00:22:00,34.0,-15.0,30.35,NE,45,2.0,3.0,11,0.00,,,0.00,meteohub,2012-11-27 05:22:00,
2012-11-27 00:23:00,34.0,-15.0,30.36,North,0,2.0,3.0,11,0.00,,,0.00,meteohub,2012-11-27 05:23:00,
2012-11-27 00:27:00,34.0,-15.0,30.36,NE,45,4.0,4.0,11,0.00,,,0.00,meteohub,2012-11-27 05:27:00,
2012-11-27 00:28:00,34.2,-15.0,30.35,North,0,3.0,3.0,11,0.00,,,0.00,meteohub,2012-11-27 05:28:00,
2012-11-27 00:29:00,34.2,-15.0,30.36,North,0,3.0,3.0,11,0.00,,,0.00,meteohub,2012-11-27 05:29:00,
2012-11-27 00:33:00,34.2,-15.0,30.36,NE,45,2.0,4.0,11,0.00,,,0.00,meteohub,2012-11-27 05:33:00,
2012-11-27 00:34:00,34.2,-15.0,30.36,NE,45,2.0,4.0,11,0.00,,,0.00,meteohub,2012-11-27 05:34:00,
2012-11-27 00:38:00,34.2,-15.0,30.36,NE,45,1.0,4.0,11,0.00,,,0.00,meteohub,2012-11-27 05:38:00,
2012-11-27 00:39:00,34.2,-15.0,30.36,NE,45,1.0,4.0,11,0.00,,,0.00,meteohub,2012-11-27 05:39:00,
2012-11-27 00:40:00,34.3,-16.6,30.36,East,90,3.0,4.0,10,0.00,,,0.00,meteohub,2012-11-27 05:40:00,
2012-11-27 00:44:00,34.3,-16.6,30.36,NE,45,2.0,4.0,10,0.00,,,0.00,meteohub,2012-11-27 05:44:00,
2012-11-27 00:45:00,34.3,-16.6,30.36,NE,45,1.0,4.0,10,0.00,,,0.00,meteohub,2012-11-27 05:45:00,
2012-11-27 00:47:00,34.3,-16.6,30.36,East,90,2.0,3.0,10,0.00,,,0.00,meteohub,2012-11-27 05:47:00,
2012-11-27 00:49:00,34.3,-16.6,30.36,East,90,2.0,3.0,10,0.00,,,0.00,meteohub,2012-11-27 05:49:00,
2012-11-27 00:50:00,34.5,34.5,30.36,East,90,2.0,3.0,0,0.00,,,0.00,meteohub,2012-11-27 05:50:00,
2012-11-27 00:51:00,34.5,34.5,30.36,East,90,2.0,3.0,0,0.00,,,0.00,meteohub,2012-11-27 05:51:00,
2012-11-27 00:52:00,34.5,34.5,30.36,East,90,2.0,3.0,0,0.00,,,0.00,meteohub,2012-11-27 05:52:00,
2012-11-27 00:54:00,34.5,34.5,30.36,East,90,3.0,3.0,0,0.00,,,0.00,meteohub,2012-11-27 05:54:00,
2012-11-27 00:56:00,34.5,34.5,30.36,East,90,2.0,3.0,0,0.00,,,0.00,meteohub,2012-11-27 05:56:00,
2012-11-27 00:57:00,34.5,34.5,30.36,East,90,2.0,3.0,0,0.00,,,0.00,meteohub,2012-11-27 05:57:00,
2012-11-27 01:01:00,34.5,34.5,30.36,NE,45,2.0,3.0,0,0.00,,,0.00,meteohub,2012-11-27 06:01:00,
2012-11-27 01:02:00,34.5,34.5,30.35,NE,45,2.0,3.0,0,0.00,,,0.00,meteohub,2012-11-27 06:02:00,
2012-11-27 01:03:00,34.5,34.5,30.36,NE,45,2.0,3.0,0,0.00,,,0.00,meteohub,2012-11-27 06:03:00,
2012-11-27 01:07:00,34.5,34.5,30.36,NE,45,2.0,3.0,0,0.00,,,0.00,meteohub,2012-11-27 06:07:00,
2012-11-27 01:09:00,34.5,34.5,30.36,East,90,2.0,3.0,0,0.00,,,0.00,meteohub,2012-11-27 06:09:00,
2012-11-27 01:12:00,34.5,34.5,30.36,NE,45,2.0,3.0,0,0.00,,,0.00,meteohub,2012-11-27 06:12:00,
2012-11-27 01:14:00,34.5,34.5,30.36,NE,45,2.0,3.0,0,0.00,,,0.00,meteohub,2012-11-27 06:14:00,
2012-11-27 01:15:00,34.5,34.5,30.36,NE,45,2.0,3.0,0,0.00,,,0.00,meteohub,2012-11-27 06:15:00,
2012-11-27 01:17:00,34.5,34.5,30.36,East,90,3.0,3.0,0,0.00,,,0.00,meteohub,2012-11-27 06:17:00,
2012-11-27 01:18:00,34.5,34.5,30.36,East,90,3.0,3.0,0,0.00,,,0.00,meteohub,2012-11-27 06:18:00,
2012-11-27 01:20:00,34.5,34.5,30.36,NE,45,2.0,3.0,0,0.00,,,0.00,meteohub,2012-11-27 06:20:00,
2012-11-27 01:23:00,34.5,34.5,30.36,NE,45,2.0,3.0,0,0.00,,,0.00,meteohub,2012-11-27 06:23:00,
2012-11-27 01:24:00,34.5,34.5,30.36,East,90,2.0,3.0,0,0.00,,,0.00,meteohub,2012-11-27 06:24:00,
2012-11-27 01:25:00,34.5,34.5,30.36,East,90,2.0,3.0,0,0.00,,,0.00,meteohub,2012-11-27 06:25:00,
2012-11-27 01:28:00,34.5,34.5,30.36,East,90,2.0,3.0,0,0.00,,,0.00,meteohub,2012-11-27 06:28:00,
2012-11-27 01:29:00,34.5,34.5,30.36,East,90,2.0,3.0,0,0.00,,,0.00,meteohub,2012-11-27 06:29:00,
2012-11-27 01:30:00,34.5,34.5,30.36,East,90,2.0,3.0,0,0.00,,,0.00,meteohub,2012-11-27 06:30:00,
2012-11-27 01:33:00,34.5,34.5,30.36,East,90,2.0,3.0,0,0.00,,,0.00,meteohub,2012-11-27 06:33:00,
2012-11-27 01:34:00,34.5,34.5,30.36,East,90,2.0,3.0,0,0.00,,,0.00,meteohub,2012-11-27 06:34:00,
2012-11-27 01:37:00,34.5,34.5,30.36,North,0,2.0,2.0,0,0.00,,,0.00,meteohub,2012-11-27 06:37:00,
2012-11-27 01:38:00,34.5,34.5,30.36,North,0,2.0,2.0,0,0.00,,,0.00,meteohub,2012-11-27 06:38:00,
2012-11-27 01:39:00,34.5,34.5,30.36,NE,45,3.0,3.0,0,0.00,,,0.00,meteohub,2012-11-27 06:39:00,
2012-11-27 01:42:00,34.5,34.5,30.36,North,0,2.0,2.0,0,0.00,,,0.00,meteohub,2012-11-27 06:42:00,
2012-11-27 01:44:00,34.5,34.5,30.36,North,0,3.0,3.0,0,0.00,,,0.00,meteohub,2012-11-27 06:44:00,
2012-11-27 01:45:00,34.5,34.5,30.36,NE,45,4.0,4.0,0,0.00,,,0.00,meteohub,2012-11-27 06:45:00,
2012-11-27 01:47:00,34.5,34.5,30.35,NE,45,2.0,3.0,0,0.00,,,0.00,meteohub,2012-11-27 06:47:00,
2012-11-27 01:49:00,34.5,34.5,30.35,NE,45,5.0,5.0,0,0.00,,,0.00,meteohub,2012-11-27 06:49:00,
2012-11-27 01:50:00,34.5,34.5,30.35,NE,45,5.0,5.0,0,0.00,,,0.00,meteohub,2012-11-27 06:50:00,
2012-11-27 01:52:00,34.5,34.5,30.35,NE,45,2.0,4.0,0,0.00,,,0.00,meteohub,2012-11-27 06:52:00,
2012-11-27 01:55:00,34.5,34.5,30.35,NE,45,2.0,5.0,0,0.00,,,0.00,meteohub,2012-11-27 06:55:00,
2012-11-27 01:56:00,34.5,34.5,30.36,NE,45,2.0,5.0,0,0.00,,,0.00,meteohub,2012-11-27 06:56:00,
2012-11-27 01:58:00,34.5,34.5,30.35,SE,135,2.0,5.0,0,0.00,,,0.00,meteohub,2012-11-27 06:58:00,
2012-11-27 02:00:00,34.5,34.5,30.36,NE,45,3.0,5.0,0,0.00,,,0.00,meteohub,2012-11-27 07:00:00,
2012-11-27 02:01:00,34.5,34.5,30.35,NE,45,3.0,5.0,0,0.00,,,0.00,meteohub,2012-11-27 07:01:00,
2012-11-27 02:02:00,34.5,34.5,30.35,NE,45,3.0,5.0,0,0.00,,,0.00,meteohub,2012-11-27 07:02:00,
2012-11-27 02:04:00,34.5,34.5,30.36,NE,45,3.0,5.0,0,0.00,,,0.00,meteohub,2012-11-27 07:04:00,
2012-11-27 02:06:00,34.5,34.5,30.36,NE,45,3.0,4.0,0,0.00,,,0.00,meteohub,2012-11-27 07:06:00,
2012-11-27 02:07:00,34.7,34.7,30.36,North,0,3.0,4.0,0,0.00,,,0.00,meteohub,2012-11-27 07:07:00,
2012-11-27 02:10:00,34.7,34.7,30.36,North,0,2.0,4.0,0,0.00,,,0.00,meteohub,2012-11-27 07:10:00,
2012-11-27 02:11:00,34.7,34.7,30.37,North,0,2.0,3.0,0,0.00,,,0.00,meteohub,2012-11-27 07:11:00,
2012-11-27 02:12:00,34.7,34.7,30.37,North,0,2.0,3.0,0,0.00,,,0.00,meteohub,2012-11-27 07:12:00,
2012-11-27 02:16:00,34.7,34.7,30.36,North,0,4.0,4.0,0,0.00,,,0.00,meteohub,2012-11-27 07:16:00,
2012-11-27 02:17:00,34.5,34.5,30.36,North,0,2.0,4.0,0,0.00,,,0.00,meteohub,2012-11-27 07:17:00,
2012-11-27 02:18:00,34.5,34.5,30.36,North,0,4.0,4.0,0,0.00,,,0.00,meteohub,2012-11-27 07:18:00,
2012-11-27 02:21:00,34.5,34.5,30.36,North,0,2.0,4.0,0,0.00,,,0.00,meteohub,2012-11-27 07:21:00,
2012-11-27 02:22:00,34.5,34.5,30.36,North,0,2.0,4.0,0,0.00,,,0.00,meteohub,2012-11-27 07:22:00,
2012-11-27 02:24:00,34.5,34.5,30.36,North,0,3.0,4.0,0,0.00,,,0.00,meteohub,2012-11-27 07:24:00,
2012-11-27 02:27:00,34.3,-16.6,30.36,North,0,3.0,4.0,10,0.00,,,0.00,meteohub,2012-11-27 07:27:00,
2012-11-27 02:28:00,34.3,-16.6,30.36,North,0,3.0,4.0,10,0.00,,,0.00,meteohub,2012-11-27 07:28:00,
2012-11-27 02:30:00,34.3,34.3,30.36,North,0,4.0,4.0,0,0.00,,,0.00,meteohub,2012-11-27 07:30:00,
2012-11-27 02:32:00,34.3,-16.6,30.36,North,0,4.0,4.0,10,0.00,,,0.00,meteohub,2012-11-27 07:32:00,
2012-11-27 02:33:00,34.3,-16.6,30.36,North,0,3.0,4.0,10,0.00,,,0.00,meteohub,2012-11-27 07:33:00,
2012-11-27 02:35:00,34.3,34.3,30.36,NE,45,4.0,4.0,0,0.00,,,0.00,meteohub,2012-11-27 07:35:00,
2012-11-27 02:37:00,34.3,-14.8,30.36,North,0,4.0,4.0,11,0.00,,,0.00,meteohub,2012-11-27 07:37:00,
2012-11-27 02:38:00,34.3,-16.6,30.36,NE,45,3.0,4.0,10,0.00,,,0.00,meteohub,2012-11-27 07:38:00,
2012-11-27 02:40:00,34.3,-14.8,30.36,South,180,3.0,4.0,11,0.00,,,0.00,meteohub,2012-11-27 07:40:00,
2012-11-27 02:42:00,34.3,-16.6,30.36,North,0,2.0,5.0,10,0.00,,,0.00,meteohub,2012-11-27 07:42:00,
2012-11-27 02:43:00,34.3,-16.6,30.36,NE,45,2.0,5.0,10,0.00,,,0.00,meteohub,2012-11-27 07:43:00,
2012-11-27 02:44:00,34.3,-16.6,30.35,NE,45,4.0,5.0,10,0.00,,,0.00,meteohub,2012-11-27 07:44:00,
2012-11-27 02:45:00,34.3,-16.6,30.36,NE,45,4.0,5.0,10,0.00,,,0.00,meteohub,2012-11-27 07:45:00,
2012-11-27 02:47:00,34.3,-16.6,30.35,West,270,2.0,5.0,10,0.00,,,0.00,meteohub,2012-11-27 07:47:00,
2012-11-27 02:49:00,34.3,-16.6,30.36,North,0,2.0,5.0,10,0.00,,,0.00,meteohub,2012-11-27 07:49:00,
2012-11-27 02:50:00,34.3,-14.8,30.36,North,0,2.0,5.0,11,0.00,,,0.00,meteohub,2012-11-27 07:50:00,
2012-11-27 02:53:00,34.2,-13.2,30.36,North,0,2.0,4.0,12,0.00,,,0.00,meteohub,2012-11-27 07:53:00,
2012-11-27 02:55:00,34.2,-15.0,30.35,NE,45,3.0,4.0,11,0.00,,,0.00,meteohub,2012-11-27 07:55:00,
2012-11-27 02:56:00,34.2,-13.2,30.35,North,0,4.0,4.0,12,0.00,,,0.00,meteohub,2012-11-27 07:56:00,
2012-11-27 02:58:00,34.3,-16.6,30.35,North,0,4.0,4.0,10,0.00,,,0.00,meteohub,2012-11-27 07:58:00,
2012-11-27 03:00:00,34.3,-16.6,30.35,NE,45,6.0,6.0,10,0.00,,,0.00,meteohub,2012-11-27 08:00:00,
2012-11-27 03:01:00,34.3,-16.6,30.35,NE,45,6.0,6.0,10,0.00,,,0.00,meteohub,2012-11-27 08:01:00,
2012-11-27 03:02:00,34.3,-16.6,30.35,NE,45,6.0,6.0,10,0.00,,,0.00,meteohub,2012-11-27 08:02:00,
2012-11-27 03:03:00,34.3,-16.6,30.35,NE,45,6.0,6.0,10,0.00,,,0.00,meteohub,2012-11-27 08:03:00,
2012-11-27 03:06:00,34.3,-16.6,30.35,NE,45,6.0,6.0,10,0.00,,,0.00,meteohub,2012-11-27 08:06:00,
2012-11-27 03:07:00,34.3,-13.0,30.35,North,0,2.0,6.0,12,0.00,,,0.00,meteohub,2012-11-27 08:07:00,
2012-11-27 03:08:00,34.3,-14.8,30.35,NE,45,3.0,6.0,11,0.00,,,0.00,meteohub,2012-11-27 08:08:00,
2012-11-27 03:09:00,34.3,-14.8,30.36,North,0,4.0,6.0,11,0.00,,,0.00,meteohub,2012-11-27 08:09:00,
2012-11-27 03:12:00,34.2,-13.2,30.36,North,0,2.0,6.0,12,0.00,,,0.00,meteohub,2012-11-27 08:12:00,
2012-11-27 03:13:00,34.0,-13.4,30.35,North,0,4.0,6.0,12,0.00,,,0.00,meteohub,2012-11-27 08:13:00,
2012-11-27 03:14:00,34.0,-13.4,30.35,NE,45,4.0,6.0,12,0.00,,,0.00,meteohub,2012-11-27 08:14:00,
2012-11-27 03:15:00,33.8,-11.9,30.35,NE,45,4.0,6.0,13,0.00,,,0.00,meteohub,2012-11-27 08:15:00,
2012-11-27 03:17:00,33.8,-10.3,30.35,East,90,2.0,6.0,14,0.00,,,0.00,meteohub,2012-11-27 08:17:00,
2012-11-27 03:19:00,33.6,-10.5,30.35,East,90,4.0,6.0,14,0.00,,,0.00,meteohub,2012-11-27 08:19:00,
2012-11-27 03:20:00,33.6,-10.5,30.35,East,90,1.0,6.0,14,0.00,,,0.00,meteohub,2012-11-27 08:20:00,
2012-11-27 03:23:00,33.6,-10.5,30.35,NE,45,2.0,6.0,14,0.00,,,0.00,meteohub,2012-11-27 08:23:00,
2012-11-27 03:24:00,33.4,-10.7,30.35,NE,45,3.0,6.0,14,0.00,,,0.00,meteohub,2012-11-27 08:24:00,
2012-11-27 03:26:00,33.6,-10.5,30.36,NE,45,3.0,4.0,14,0.00,,,0.00,meteohub,2012-11-27 08:26:00,
2012-11-27 03:29:00,33.8,-11.9,30.35,NW,315,4.0,4.0,13,0.00,,,0.00,meteohub,2012-11-27 08:29:00,
2012-11-27 03:31:00,33.8,-13.5,30.35,NE,45,4.0,4.0,12,0.00,,,0.00,meteohub,2012-11-27 08:31:00,
2012-11-27 03:35:00,34.0,-13.4,30.35,NW,315,2.0,4.0,12,0.00,,,0.00,meteohub,2012-11-27 08:35:00,
2012-11-27 03:36:00,34.0,-13.4,30.36,NW,315,2.0,4.0,12,0.00,,,0.00,meteohub,2012-11-27 08:36:00,
2012-11-27 03:37:00,34.0,-13.4,30.36,NW,315,2.0,4.0,12,0.00,,,0.00,meteohub,2012-11-27 08:37:00,
2012-11-27 03:40:00,34.0,-13.4,30.35,West,270,3.0,4.0,12,0.00,,,0.00,meteohub,2012-11-27 08:40:00,
2012-11-27 03:42:00,34.0,-13.4,30.35,West,270,2.0,4.0,12,0.00,,,0.00,meteohub,2012-11-27 08:42:00,
2012-11-27 03:45:00,33.6,-12.1,30.36,West,270,2.0,4.0,13,0.00,,,0.00,meteohub,2012-11-27 08:45:00,
2012-11-27 03:46:00,33.6,-12.1,30.36,West,270,2.0,4.0,13,0.00,,,0.00,meteohub,2012-11-27 08:46:00,
2012-11-27 03:48:00,33.6,-12.1,30.36,North,0,2.0,4.0,13,0.00,,,0.00,meteohub,2012-11-27 08:48:00,
2012-11-27 03:50:00,33.4,-9.2,30.36,North,0,2.0,4.0,15,0.00,,,0.00,meteohub,2012-11-27 08:50:00,
2012-11-27 03:51:00,33.4,-9.2,30.36,North,0,2.0,4.0,15,0.00,,,0.00,meteohub,2012-11-27 08:51:00,
2012-11-27 03:53:00,33.3,-9.4,30.35,NE,45,2.0,4.0,15,0.00,,,0.00,meteohub,2012-11-27 08:53:00,
2012-11-27 03:56:00,33.3,-8.1,30.35,NE,45,3.0,3.0,16,0.00,,,0.00,meteohub,2012-11-27 08:56:00,
2012-11-27 03:58:00,33.1,-7.1,30.35,North,0,3.0,3.0,17,0.00,,,0.00,meteohub,2012-11-27 08:58:00,
2012-11-27 03:59:00,33.1,-7.1,30.35,North,0,3.0,3.0,17,0.00,,,0.00,meteohub,2012-11-27 08:59:00,
2012-11-27 04:01:00,33.1,-7.1,30.35,NE,45,4.0,4.0,17,0.00,,,0.00,meteohub,2012-11-27 09:01:00,
2012-11-27 04:02:00,33.1,-7.1,30.35,NE,45,4.0,4.0,17,0.00,,,0.00,meteohub,2012-11-27 09:02:00,
2012-11-27 04:03:00,33.1,-7.1,30.35,NE,45,4.0,4.0,17,0.00,,,0.00,meteohub,2012-11-27 09:03:00,
2012-11-27 04:04:00,33.1,-7.1,30.35,NE,45,4.0,4.0,17,0.00,,,0.00,meteohub,2012-11-27 09:04:00,
2012-11-27 04:06:00,33.1,-7.1,30.35,NE,45,4.0,5.0,17,0.00,,,0.00,meteohub,2012-11-27 09:06:00,
2012-11-27 04:08:00,33.1,-7.1,30.35,NE,45,4.0,5.0,17,0.00,,,0.00,meteohub,2012-11-27 09:08:00,
2012-11-27 04:09:00,33.1,-7.1,30.35,NE,45,2.0,5.0,17,0.00,,,0.00,meteohub,2012-11-27 09:09:00,
2012-11-27 04:11:00,33.1,-7.1,30.35,East,90,2.0,5.0,17,0.00,,,0.00,meteohub,2012-11-27 09:11:00,
2012-11-27 04:14:00,33.1,-5.8,30.35,NE,45,2.0,5.0,18,0.00,,,0.00,meteohub,2012-11-27 09:14:00,
2012-11-27 04:15:00,33.1,-5.8,30.35,NW,315,2.0,5.0,18,0.00,,,0.00,meteohub,2012-11-27 09:15:00,
2012-11-27 04:17:00,33.1,-4.7,30.35,NE,45,2.0,4.0,19,0.00,,,0.00,meteohub,2012-11-27 09:17:00,
2012-11-27 04:19:00,33.1,-4.7,30.35,North,0,2.0,4.0,19,0.00,,,0.00,meteohub,2012-11-27 09:19:00,
2012-11-27 04:20:00,33.1,-4.7,30.35,North,0,2.0,4.0,19,0.00,,,0.00,meteohub,2012-11-27 09:20:00,
2012-11-27 04:22:00,32.9,-4.9,30.35,West,270,2.0,4.0,19,0.00,,,0.00,meteohub,2012-11-27 09:22:00,
2012-11-27 04:23:00,32.9,-3.8,30.35,North,0,2.0,4.0,20,0.00,,,0.00,meteohub,2012-11-27 09:23:00,
2012-11-27 04:25:00,32.9,-4.9,30.35,North,0,2.0,4.0,19,0.00,,,0.00,meteohub,2012-11-27 09:25:00,
2012-11-27 04:27:00,32.9,-4.9,30.35,NW,315,2.0,3.0,19,0.00,,,0.00,meteohub,2012-11-27 09:27:00,
2012-11-27 04:29:00,32.9,-3.8,30.35,North,0,2.0,3.0,20,0.00,,,0.00,meteohub,2012-11-27 09:29:00,
2012-11-27 04:30:00,32.7,-2.9,30.35,North,0,2.0,3.0,21,0.00,,,0.00,meteohub,2012-11-27 09:30:00,
2012-11-27 04:31:00,32.7,-2.9,30.35,North,0,2.0,3.0,21,0.00,,,0.00,meteohub,2012-11-27 09:31:00,
2012-11-27 04:33:00,32.7,-2.9,30.35,NW,315,2.0,3.0,21,0.00,,,0.00,meteohub,2012-11-27 09:33:00,
2012-11-27 04:34:00,32.5,-3.1,30.35,NW,315,2.0,3.0,21,0.00,,,0.00,meteohub,2012-11-27 09:34:00,
2012-11-27 04:35:00,32.5,-2.0,30.35,NW,315,2.0,3.0,22,0.00,,,0.00,meteohub,2012-11-27 09:35:00,
2012-11-27 04:36:00,32.5,-2.0,30.35,North,0,2.0,3.0,22,0.00,,,0.00,meteohub,2012-11-27 09:36:00,
2012-11-27 04:38:00,32.5,-1.1,30.35,NE,45,2.0,3.0,23,0.00,,,0.00,meteohub,2012-11-27 09:38:00,
2012-11-27 04:39:00,32.5,-0.2,30.35,North,0,2.0,3.0,24,0.00,,,0.00,meteohub,2012-11-27 09:39:00,
2012-11-27 04:41:00,32.4,-0.4,30.35,North,0,4.0,4.0,24,0.00,,,0.00,meteohub,2012-11-27 09:41:00,
2012-11-27 04:42:00,32.4,0.5,30.35,North,0,2.0,3.0,25,0.00,,,0.00,meteohub,2012-11-27 09:42:00,
2012-11-27 04:43:00,32.4,-0.4,30.35,North,0,3.0,3.0,24,0.00,,,0.00,meteohub,2012-11-27 09:43:00,
2012-11-27 04:44:00,32.4,-0.4,30.35,North,0,2.0,3.0,24,0.00,,,0.00,meteohub,2012-11-27 09:44:00,
2012-11-27 04:46:00,32.2,0.3,30.35,North,0,2.0,5.0,25,0.00,,,0.00,meteohub,2012-11-27 09:46:00,
2012-11-27 04:47:00,32.2,0.3,30.35,North,0,3.0,5.0,25,0.00,,,0.00,meteohub,2012-11-27 09:47:00,
2012-11-27 04:49:00,32.2,1.2,30.35,North,0,4.0,5.0,26,0.00,,,0.00,meteohub,2012-11-27 09:49:00,
2012-11-27 04:51:00,32.0,1.0,30.35,North,0,2.0,5.0,26,0.00,,,0.00,meteohub,2012-11-27 09:51:00,
2012-11-27 04:53:00,32.0,1.8,30.35,North,0,5.0,5.0,27,0.00,,,0.00,meteohub,2012-11-27 09:53:00,
2012-11-27 04:54:00,31.8,1.6,30.35,North,0,2.0,5.0,27,0.00,,,0.00,meteohub,2012-11-27 09:54:00,
2012-11-27 04:55:00,31.8,1.6,30.35,North,0,2.0,5.0,27,0.00,,,0.00,meteohub,2012-11-27 09:55:00,
2012-11-27 04:56:00,31.6,2.3,30.35,North,0,4.0,5.0,28,0.00,,,0.00,meteohub,2012-11-27 09:56:00,
2012-11-27 04:58:00,31.6,2.3,30.35,NE,45,2.0,5.0,28,0.00,,,0.00,meteohub,2012-11-27 09:58:00,
2012-11-27 04:59:00,31.5,2.1,30.35,NW,315,3.0,5.0,28,0.00,,,0.00,meteohub,2012-11-27 09:59:00,
2012-11-27 05:00:00,31.5,2.1,30.35,West,270,2.0,5.0,28,0.00,,,0.00,meteohub,2012-11-27 10:00:00,
2012-11-27 05:01:00,31.5,2.1,30.35,West,270,2.0,5.0,28,0.00,,,0.00,meteohub,2012-11-27 10:01:00,
2012-11-27 05:03:00,31.5,2.1,30.35,West,270,2.0,5.0,28,0.00,,,0.00,meteohub,2012-11-27 10:03:00,
2012-11-27 05:05:00,31.5,2.1,30.35,West,270,2.0,5.0,28,0.00,,,0.00,meteohub,2012-11-27 10:05:00,
2012-11-27 05:06:00,31.5,2.1,30.35,West,270,2.0,5.0,28,0.00,,,0.00,meteohub,2012-11-27 10:06:00,
2012-11-27 05:08:00,30.9,3.7,30.35,East,90,4.0,5.0,31,0.00,,,0.00,meteohub,2012-11-27 10:08:00,
2012-11-27 05:10:00,30.9,4.5,30.35,NE,45,4.0,5.0,32,0.00,,,0.00,meteohub,2012-11-27 10:10:00,
2012-11-27 05:12:00,30.9,5.2,30.35,NW,315,3.0,4.0,33,0.00,,,0.00,meteohub,2012-11-27 10:12:00,
2012-11-27 05:13:00,30.7,5.0,30.35,NE,45,3.0,4.0,33,0.00,,,0.00,meteohub,2012-11-27 10:13:00,
2012-11-27 05:15:00,30.9,5.2,30.35,ENE,68,2.0,4.0,33,0.00,,,0.00,meteohub,2012-11-27 10:15:00,
2012-11-27 05:16:00,30.7,5.0,30.35,NE,45,2.0,4.0,33,0.00,,,0.00,meteohub,2012-11-27 10:16:00,
2012-11-27 05:17:00,30.9,5.2,30.35,East,90,4.0,4.0,33,0.00,,,0.00,meteohub,2012-11-27 10:17:00,
2012-11-27 05:18:00,30.9,5.2,30.35,NE,45,4.0,4.0,33,0.00,,,0.00,meteohub,2012-11-27 10:18:00,
2012-11-27 05:20:00,30.9,5.9,30.35,North,0,4.0,4.0,34,0.00,,,0.00,meteohub,2012-11-27 10:20:00,
2012-11-27 05:21:00,30.9,5.9,30.35,North,0,4.0,4.0,34,0.00,,,0.00,meteohub,2012-11-27 10:21:00,
2012-11-27 05:22:00,30.9,6.4,30.35,North,0,3.0,4.0,35,0.00,,,0.00,meteohub,2012-11-27 10:22:00,
2012-11-27 05:24:00,30.9,6.4,30.35,North,0,2.0,4.0,35,0.00,,,0.00,meteohub,2012-11-27 10:24:00,
2012-11-27 05:25:00,30.9,7.2,30.35,NW,315,4.0,4.0,36,0.00,,,0.00,meteohub,2012-11-27 10:25:00,
2012-11-27 05:26:00,30.9,7.2,30.35,NE,45,4.0,4.0,36,0.00,,,0.00,meteohub,2012-11-27 10:26:00,
2012-11-27 05:28:00,31.1,7.3,30.35,NE,45,5.0,5.0,36,0.00,,,0.00,meteohub,2012-11-27 10:28:00,
2012-11-27 05:30:00,31.1,7.3,30.35,East,90,4.0,4.0,36,0.00,,,0.00,meteohub,2012-11-27 10:30:00,
2012-11-27 05:31:00,31.1,7.3,30.35,East,90,2.0,4.0,36,0.00,,,0.00,meteohub,2012-11-27 10:31:00,
2012-11-27 05:32:00,31.1,7.3,30.35,NE,45,3.0,6.0,36,0.00,,,0.00,meteohub,2012-11-27 10:32:00,
2012-11-27 05:34:00,31.1,7.3,30.35,East,90,2.0,6.0,36,0.00,,,0.00,meteohub,2012-11-27 10:34:00,
2012-11-27 05:35:00,31.1,7.3,30.35,NE,45,3.0,6.0,36,0.00,,,0.00,meteohub,2012-11-27 10:35:00,
2012-11-27 05:37:00,31.3,7.3,30.35,NE,45,4.0,6.0,36,0.00,,,0.00,meteohub,2012-11-27 10:37:00,
2012-11-27 05:39:00,31.3,7.3,30.35,NE,45,4.0,6.0,36,0.00,,,0.00,meteohub,2012-11-27 10:39:00,
2012-11-27 05:40:00,31.3,7.3,30.35,North,0,4.0,6.0,36,0.00,,,0.00,meteohub,2012-11-27 10:40:00,
2012-11-27 05:42:00,31.5,7.5,30.35,NE,45,4.0,6.0,36,0.00,,,0.00,meteohub,2012-11-27 10:42:00,
2012-11-27 05:44:00,31.5,7.5,30.35,East,90,4.0,6.0,36,0.00,,,0.00,meteohub,2012-11-27 10:44:00,
2012-11-27 05:46:00,31.5,7.5,30.35,East,90,2.0,6.0,36,0.00,,,0.00,meteohub,2012-11-27 10:46:00,
2012-11-27 05:47:00,31.5,7.5,30.35,South,180,4.0,6.0,36,0.00,,,0.00,meteohub,2012-11-27 10:47:00,
2012-11-27 05:48:00,31.5,7.5,30.35,SE,135,2.0,6.0,36,0.00,,,0.00,meteohub,2012-11-27 10:48:00,
2012-11-27 05:49:00,31.6,7.7,30.35,East,90,3.0,6.0,36,0.00,,,0.00,meteohub,2012-11-27 10:49:00,
2012-11-27 05:51:00,31.6,7.7,30.35,NE,45,2.0,6.0,36,0.00,,,0.00,meteohub,2012-11-27 10:51:00,
2012-11-27 05:53:00,31.6,7.7,30.35,East,90,4.0,6.0,36,0.00,,,0.00,meteohub,2012-11-27 10:53:00,
2012-11-27 05:55:00,31.6,7.7,30.35,East,90,3.0,6.0,36,0.00,,,0.00,meteohub,2012-11-27 10:55:00,
2012-11-27 05:57:00,31.6,7.7,30.35,East,90,3.0,4.0,36,0.00,,,0.00,meteohub,2012-11-27 10:57:00,
2012-11-27 05:58:00,31.6,7.7,30.35,East,90,7.0,7.0,36,0.00,,,0.00,meteohub,2012-11-27 10:58:00,
2012-11-27 06:00:00,31.8,7.9,30.35,East,90,4.0,4.0,36,0.00,,,0.00,meteohub,2012-11-27 11:00:00,
2012-11-27 06:01:00,31.8,7.9,30.35,East,90,4.0,4.0,36,0.00,,,0.00,meteohub,2012-11-27 11:01:00,
2012-11-27 06:02:00,31.8,7.9,30.35,East,90,4.0,4.0,36,0.00,,,0.00,meteohub,2012-11-27 11:02:00,
2012-11-27 06:04:00,31.8,7.9,30.35,East,90,4.0,4.0,36,0.00,,,0.00,meteohub,2012-11-27 11:04:00,
2012-11-27 06:05:00,31.8,7.9,30.35,East,90,4.0,7.0,36,0.00,,,0.00,meteohub,2012-11-27 11:05:00,
2012-11-27 06:06:00,31.8,7.9,30.35,East,90,4.0,7.0,36,0.00,,,0.00,meteohub,2012-11-27 11:06:00,
2012-11-27 06:07:00,31.8,7.9,30.35,SE,135,4.0,7.0,36,0.00,,,0.00,meteohub,2012-11-27 11:07:00,
2012-11-27 06:09:00,31.6,7.7,30.35,East,90,3.0,7.0,36,0.00,,,0.00,meteohub,2012-11-27 11:09:00,
2012-11-27 06:10:00,31.6,7.7,30.35,East,90,3.0,7.0,36,0.00,,,0.00,meteohub,2012-11-27 11:10:00,
2012-11-27 06:11:00,31.6,7.7,30.35,SE,135,3.0,7.0,36,0.00,,,0.00,meteohub,2012-11-27 11:11:00,
2012-11-27 06:13:00,31.6,7.7,30.35,SE,135,3.0,7.0,36,0.00,,,0.00,meteohub,2012-11-27 11:13:00,
2012-11-27 06:15:00,31.6,7.7,30.35,East,90,2.0,7.0,36,0.00,,,0.00,meteohub,2012-11-27 11:15:00,
2012-11-27 06:17:00,31.6,8.4,30.35,SE,135,3.0,4.0,37,0.00,,,0.00,meteohub,2012-11-27 11:17:00,
2012-11-27 06:19:00,31.6,8.4,30.35,East,90,2.0,4.0,37,0.00,,,0.00,meteohub,2012-11-27 11:19:00,
2012-11-27 06:20:00,31.6,8.4,30.35,East,90,2.0,4.0,37,0.00,,,0.00,meteohub,2012-11-27 11:20:00,
2012-11-27 06:21:00,31.6,8.4,30.35,NE,45,3.0,4.0,37,0.00,,,0.00,meteohub,2012-11-27 11:21:00,
2012-11-27 06:22:00,31.6,8.4,30.35,SE,135,3.0,4.0,37,0.00,,,0.00,meteohub,2012-11-27 11:22:00,
2012-11-27 06:25:00,31.6,8.4,30.35,East,90,3.0,4.0,37,0.00,,,0.00,meteohub,2012-11-27 11:25:00,
2012-11-27 06:27:00,31.5,8.8,30.35,East,90,2.0,4.0,38,0.00,,,0.00,meteohub,2012-11-27 11:27:00,
2012-11-27 06:30:00,31.5,8.8,30.35,SE,135,3.0,4.0,38,0.00,,,0.00,meteohub,2012-11-27 11:30:00,
2012-11-27 06:32:00,31.5,8.8,30.35,East,90,2.0,4.0,38,0.00,,,0.00,meteohub,2012-11-27 11:32:00,
2012-11-27 06:33:00,31.5,9.3,30.35,East,90,3.0,4.0,39,0.00,,,0.00,meteohub,2012-11-27 11:33:00,
2012-11-27 06:36:00,31.5,9.9,30.35,East,90,3.0,5.0,40,0.00,,,0.00,meteohub,2012-11-27 11:36:00,
2012-11-27 06:38:00,31.3,9.7,30.35,East,90,3.0,5.0,40,0.00,,,0.00,meteohub,2012-11-27 11:38:00,
2012-11-27 06:39:00,31.3,9.7,30.36,East,90,4.0,5.0,40,0.00,,,0.00,meteohub,2012-11-27 11:39:00,
2012-11-27 06:41:00,31.3,10.2,30.35,East,90,2.0,5.0,41,0.00,,,0.00,meteohub,2012-11-27 11:41:00,
2012-11-27 06:43:00,31.1,10.8,30.36,SE,135,4.0,5.0,42,0.00,,,0.00,meteohub,2012-11-27 11:43:00,
2012-11-27 06:45:00,31.1,10.8,30.36,SE,135,2.0,4.0,42,0.00,,,0.00,meteohub,2012-11-27 11:45:00,
2012-11-27 06:46:00,31.1,11.3,30.36,SE,135,2.0,4.0,43,0.00,,,0.00,meteohub,2012-11-27 11:46:00,
2012-11-27 06:48:00,31.1,11.3,30.36,SE,135,2.0,4.0,43,0.00,,,0.00,meteohub,2012-11-27 11:48:00,
2012-11-27 06:49:00,31.1,11.3,30.36,East,90,2.0,4.0,43,0.00,,,0.00,meteohub,2012-11-27 11:49:00,
2012-11-27 06:51:00,30.9,11.5,30.36,East,90,2.0,4.0,44,0.00,,,0.00,meteohub,2012-11-27 11:51:00,
2012-11-27 06:52:00,30.9,11.5,30.36,East,90,2.0,4.0,44,0.00,,,0.00,meteohub,2012-11-27 11:52:00,
2012-11-27 06:54:00,30.9,12.0,30.36,SE,135,2.0,4.0,45,0.00,,,0.00,meteohub,2012-11-27 11:54:00,
2012-11-27 06:56:00,30.9,12.6,30.36,SE,135,2.0,4.0,46,0.00,,,0.00,meteohub,2012-11-27 11:56:00,
2012-11-27 06:57:00,30.9,12.6,30.36,SE,135,2.0,4.0,46,0.00,,,0.00,meteohub,2012-11-27 11:57:00,
2012-11-27 06:59:00,30.9,13.1,30.36,SE,135,2.0,4.0,47,0.00,,,0.00,meteohub,2012-11-27 11:59:00,
2012-11-27 07:02:00,30.9,13.1,30.36,SE,135,2.0,2.0,47,0.00,,,0.00,meteohub,2012-11-27 12:02:00,
2012-11-27 07:03:00,30.9,13.1,30.36,SE,135,2.0,2.0,47,0.00,,,0.00,meteohub,2012-11-27 12:03:00,
2012-11-27 07:06:00,30.9,13.1,30.37,SE,135,2.0,2.0,47,0.00,,,0.00,meteohub,2012-11-27 12:06:00,
2012-11-27 07:07:00,30.7,14.4,30.36,SE,135,2.0,2.0,50,0.00,,,0.00,meteohub,2012-11-27 12:07:00,
2012-11-27 07:08:00,30.7,14.4,30.36,SE,135,2.0,2.0,50,0.00,,,0.00,meteohub,2012-11-27 12:08:00,
2012-11-27 07:11:00,30.7,14.4,30.36,SE,135,2.0,2.0,50,0.00,,,0.00,meteohub,2012-11-27 12:11:00,
2012-11-27 07:12:00,30.6,14.5,30.36,SE,135,2.0,2.0,51,0.00,,,0.00,meteohub,2012-11-27 12:12:00,
2012-11-27 07:13:00,30.6,14.5,30.36,SE,135,2.0,2.0,51,0.00,,,0.00,meteohub,2012-11-27 12:13:00,
2012-11-27 07:14:00,30.6,14.5,30.35,SE,135,2.0,2.0,51,0.00,,,0.00,meteohub,2012-11-27 12:14:00,
2012-11-27 07:16:00,30.6,15.1,30.36,SE,135,2.0,2.0,52,0.00,,,0.00,meteohub,2012-11-27 12:16:00,
2012-11-27 07:18:00,30.6,15.1,30.36,SE,135,2.0,2.0,52,0.00,,,0.00,meteohub,2012-11-27 12:18:00,
2012-11-27 07:19:00,30.6,15.1,30.36,SE,135,2.0,2.0,52,0.00,,,0.00,meteohub,2012-11-27 12:19:00,
2012-11-27 07:22:00,30.4,15.3,30.36,SE,135,2.0,2.0,53,0.00,,,0.00,meteohub,2012-11-27 12:22:00,
2012-11-27 07:23:00,30.6,15.4,30.36,SE,135,2.0,2.0,53,0.00,,,0.00,meteohub,2012-11-27 12:23:00,
2012-11-27 07:25:00,30.4,15.3,30.36,East,90,2.0,2.0,53,0.00,,,0.00,meteohub,2012-11-27 12:25:00,
2012-11-27 07:27:00,30.4,15.8,30.36,East,90,1.0,2.0,54,0.00,,,0.00,meteohub,2012-11-27 12:27:00,
2012-11-27 07:29:00,30.6,16.0,30.35,SE,135,2.0,2.0,54,0.00,,,0.00,meteohub,2012-11-27 12:29:00,
2012-11-27 07:30:00,30.6,16.0,30.36,SE,135,2.0,2.0,54,0.00,,,0.00,meteohub,2012-11-27 12:30:00,
2012-11-27 07:32:00,30.6,16.0,30.36,SE,135,2.0,2.0,54,0.00,,,0.00,meteohub,2012-11-27 12:32:00,
2012-11-27 07:34:00,30.6,16.0,30.36,SE,135,2.0,2.0,54,0.00,,,0.00,meteohub,2012-11-27 12:34:00,
2012-11-27 07:36:00,30.6,16.3,30.36,SE,135,2.0,2.0,55,0.00,,,0.00,meteohub,2012-11-27 12:36:00,
2012-11-27 07:37:00,30.7,16.5,30.36,SE,135,2.0,2.0,55,0.00,,,0.00,meteohub,2012-11-27 12:37:00,
2012-11-27 07:39:00,30.7,16.9,30.36,SE,135,2.0,2.0,56,0.00,,,0.00,meteohub,2012-11-27 12:39:00,
2012-11-27 07:40:00,30.6,16.7,30.36,SE,135,2.0,2.0,56,0.00,,,0.00,meteohub,2012-11-27 12:40:00,
2012-11-27 07:42:00,30.7,16.9,30.36,SE,135,1.0,2.0,56,0.00,,,0.00,meteohub,2012-11-27 12:42:00,
2012-11-27 07:43:00,30.7,16.9,30.36,SE,135,1.0,2.0,56,0.00,,,0.00,meteohub,2012-11-27 12:43:00,
2012-11-27 07:45:00,30.7,16.9,30.36,SE,135,2.0,2.0,56,0.00,,,0.00,meteohub,2012-11-27 12:45:00,
2012-11-27 07:46:00,30.7,16.9,30.36,SE,135,2.0,2.0,56,0.00,,,0.00,meteohub,2012-11-27 12:46:00,
2012-11-27 07:47:00,30.7,16.9,30.36,SE,135,2.0,2.0,56,0.00,,,0.00,meteohub,2012-11-27 12:47:00,
2012-11-27 07:48:00,30.9,17.4,30.37,SE,135,2.0,2.0,57,0.00,,,0.00,meteohub,2012-11-27 12:48:00,
2012-11-27 07:51:00,30.9,17.4,30.36,SE,135,2.0,2.0,57,0.00,,,0.00,meteohub,2012-11-27 12:51:00,
2012-11-27 07:52:00,30.9,17.4,30.36,SE,135,2.0,2.0,57,0.00,,,0.00,meteohub,2012-11-27 12:52:00,
2012-11-27 07:53:00,30.9,17.4,30.37,SE,135,2.0,2.0,57,0.00,,,0.00,meteohub,2012-11-27 12:53:00,
2012-11-27 07:57:00,30.9,18.0,30.37,SE,135,1.0,2.0,58,0.00,,,0.00,meteohub,2012-11-27 12:57:00,
2012-11-27 07:58:00,30.9,18.0,30.37,SE,135,1.0,2.0,58,0.00,,,0.00,meteohub,2012-11-27 12:58:00,
2012-11-27 08:02:00,31.1,18.1,30.38,SE,135,2.0,2.0,58,0.00,,,0.00,meteohub,2012-11-27 13:02:00,
2012-11-27 08:03:00,31.1,18.1,30.38,SE,135,2.0,2.0,58,0.00,,,0.00,meteohub,2012-11-27 13:03:00,
2012-11-27 08:04:00,31.1,18.1,30.37,SE,135,2.0,2.0,58,0.00,,,0.00,meteohub,2012-11-27 13:04:00,
2012-11-27 08:07:00,31.1,18.1,30.37,SE,135,1.0,2.0,58,0.00,,,0.00,meteohub,2012-11-27 13:07:00,
2012-11-27 08:08:00,31.1,18.1,30.38,SE,135,2.0,2.0,58,0.00,,,0.00,meteohub,2012-11-27 13:08:00,
2012-11-27 08:09:00,31.1,18.1,30.38,SE,135,1.0,2.0,58,0.00,,,0.00,meteohub,2012-11-27 13:09:00,
2012-11-27 08:11:00,31.3,18.1,30.38,SE,135,1.0,2.0,58,0.00,,,0.00,meteohub,2012-11-27 13:11:00,
2012-11-27 08:12:00,31.3,18.1,30.38,SE,135,1.0,2.0,58,0.00,,,0.00,meteohub,2012-11-27 13:12:00,
2012-11-27 08:14:00,31.3,18.1,30.38,SE,135,2.0,2.0,58,0.00,,,0.00,meteohub,2012-11-27 13:14:00,
2012-11-27 08:15:00,31.3,18.1,30.38,SE,135,1.0,2.0,58,0.00,,,0.00,meteohub,2012-11-27 13:15:00,
2012-11-27 08:16:00,31.3,18.1,30.38,SE,135,1.0,2.0,58,0.00,,,0.00,meteohub,2012-11-27 13:16:00,
2012-11-27 08:18:00,31.5,18.3,30.38,SE,135,1.0,2.0,58,0.00,,,0.00,meteohub,2012-11-27 13:18:00,
2012-11-27 08:19:00,31.5,18.3,30.38,South,180,2.0,2.0,58,0.00,,,0.00,meteohub,2012-11-27 13:19:00,
2012-11-27 08:20:00,31.6,18.5,30.38,SE,135,2.0,2.0,58,0.00,,,0.00,meteohub,2012-11-27 13:20:00,
2012-11-27 08:21:00,31.6,18.5,30.38,SE,135,2.0,2.0,58,0.00,,,0.00,meteohub,2012-11-27 13:21:00,
2012-11-27 08:23:00,31.6,18.5,30.38,SE,135,2.0,2.0,58,0.00,,,0.00,meteohub,2012-11-27 13:23:00,
2012-11-27 08:25:00,31.8,18.7,30.38,SE,135,1.0,2.0,58,0.00,,,0.00,meteohub,2012-11-27 13:25:00,
2012-11-27 08:26:00,31.8,18.7,30.39,SE,135,2.0,2.0,58,0.00,,,0.00,meteohub,2012-11-27 13:26:00,
2012-11-27 08:27:00,31.8,18.7,30.38,SE,135,2.0,2.0,58,0.00,,,0.00,meteohub,2012-11-27 13:27:00,
2012-11-27 08:29:00,31.8,18.7,30.38,East,90,2.0,2.0,58,0.00,,,0.00,meteohub,2012-11-27 13:29:00,
2012-11-27 08:30:00,31.8,18.7,30.38,East,90,1.0,2.0,58,0.00,,,0.00,meteohub,2012-11-27 13:30:00,
2012-11-27 08:32:00,31.8,18.7,30.38,East,90,1.0,2.0,58,0.00,,,0.00,meteohub,2012-11-27 13:32:00,
2012-11-27 08:33:00,31.8,18.7,30.38,East,90,1.0,2.0,58,0.00,,,0.00,meteohub,2012-11-27 13:33:00,
2012-11-27 08:34:00,31.8,18.7,30.38,East,90,1.0,2.0,58,0.00,,,0.00,meteohub,2012-11-27 13:34:00,
2012-11-27 08:36:00,31.8,18.7,30.38,East,90,1.0,2.0,58,0.00,,,0.00,meteohub,2012-11-27 13:36:00,
2012-11-27 08:38:00,31.8,18.7,30.38,East,90,1.0,2.0,58,0.00,,,0.00,meteohub,2012-11-27 13:38:00,
2012-11-27 08:39:00,31.8,18.7,30.38,East,90,1.0,2.0,58,0.00,,,0.00,meteohub,2012-11-27 13:39:00,
2012-11-27 08:41:00,32.0,18.5,30.38,SE,135,0.0,2.0,57,0.00,,,0.00,meteohub,2012-11-27 13:41:00,
2012-11-27 08:44:00,32.0,18.5,30.38,East,90,0.0,2.0,57,0.00,,,0.00,meteohub,2012-11-27 13:44:00,
2012-11-27 08:46:00,32.0,18.1,30.38,East,90,0.0,1.0,56,0.00,,,0.00,meteohub,2012-11-27 13:46:00,
2012-11-27 08:47:00,32.0,18.1,30.38,East,90,0.0,1.0,56,0.00,,,0.00,meteohub,2012-11-27 13:47:00,
2012-11-27 08:49:00,32.2,18.3,30.38,East,90,0.0,1.0,56,0.00,,,0.00,meteohub,2012-11-27 13:49:00,
2012-11-27 08:52:00,32.4,18.5,30.38,East,90,0.0,1.0,56,0.00,,,0.00,meteohub,2012-11-27 13:52:00,
2012-11-27 08:53:00,32.4,18.5,30.38,East,90,0.0,1.0,56,0.00,,,0.00,meteohub,2012-11-27 13:53:00,
2012-11-27 08:54:00,32.4,18.5,30.38,East,90,0.0,1.0,56,0.00,,,0.00,meteohub,2012-11-27 13:54:00,
2012-11-27 08:57:00,32.5,18.5,30.38,East,90,0.0,0.0,56,0.00,,,0.00,meteohub,2012-11-27 13:57:00,
2012-11-27 08:58:00,32.5,18.5,30.38,East,90,0.0,0.0,56,0.00,,,0.00,meteohub,2012-11-27 13:58:00,
2012-11-27 09:00:00,32.7,18.7,30.38,East,90,0.0,0.0,56,0.00,,,0.00,meteohub,2012-11-27 14:00:00,
2012-11-27 09:03:00,32.7,18.7,30.38,East,90,0.0,0.0,56,0.00,,,0.00,meteohub,2012-11-27 14:03:00,
2012-11-27 09:05:00,32.7,18.3,30.38,East,90,0.0,0.0,55,0.00,,,0.00,meteohub,2012-11-27 14:05:00,
2012-11-27 09:09:00,32.9,18.1,30.38,East,90,0.0,0.0,54,0.00,,,0.00,meteohub,2012-11-27 14:09:00,
2012-11-27 09:10:00,32.9,18.1,30.38,West,270,0.0,0.0,54,0.00,,,0.00,meteohub,2012-11-27 14:10:00,
2012-11-27 09:14:00,33.1,18.3,30.39,West,270,0.0,0.0,54,0.00,,,0.00,meteohub,2012-11-27 14:14:00,
2012-11-27 09:15:00,33.3,18.5,30.39,West,270,0.0,0.0,54,0.00,,,0.00,meteohub,2012-11-27 14:15:00,
2012-11-27 09:19:00,33.3,18.5,30.39,West,270,0.0,0.0,54,0.00,,,0.00,meteohub,2012-11-27 14:19:00,
2012-11-27 09:20:00,33.3,18.5,30.39,West,270,0.0,0.0,54,0.00,,,0.00,meteohub,2012-11-27 14:20:00,
2012-11-27 09:21:00,33.3,18.5,30.39,West,270,0.0,0.0,54,0.00,,,0.00,meteohub,2012-11-27 14:21:00,
2012-11-27 09:22:00,33.3,18.5,30.39,West,270,0.0,0.0,54,0.00,,,0.00,meteohub,2012-11-27 14:22:00,
2012-11-27 09:25:00,33.3,17.6,30.39,NW,315,0.0,0.0,52,0.00,,,0.00,meteohub,2012-11-27 14:25:00,
2012-11-27 09:26:00,33.3,17.6,30.39,NW,315,0.0,0.0,52,0.00,,,0.00,meteohub,2012-11-27 14:26:00,
2012-11-27 09:27:00,33.1,17.4,30.39,NW,315,0.0,0.0,52,0.00,,,0.00,meteohub,2012-11-27 14:27:00,
2012-11-27 09:30:00,33.1,17.4,30.39,West,270,0.0,0.0,52,0.00,,,0.00,meteohub,2012-11-27 14:30:00,
2012-11-27 09:31:00,33.1,17.4,30.39,West,270,0.0,0.0,52,0.00,,,0.00,meteohub,2012-11-27 14:31:00,
2012-11-27 09:32:00,32.9,17.2,30.40,West,270,0.0,0.0,52,0.00,,,0.00,meteohub,2012-11-27 14:32:00,
2012-11-27 09:34:00,32.9,17.2,30.40,West,270,0.0,0.0,52,0.00,,,0.00,meteohub,2012-11-27 14:34:00,
2012-11-27 09:35:00,32.7,17.1,30.39,West,270,0.0,0.0,52,0.00,,,0.00,meteohub,2012-11-27 14:35:00,
2012-11-27 09:36:00,32.7,17.4,30.39,West,270,0.0,0.0,53,0.00,,,0.00,meteohub,2012-11-27 14:36:00,
2012-11-27 09:38:00,32.7,17.4,30.40,West,270,0.0,0.0,53,0.00,,,0.00,meteohub,2012-11-27 14:38:00,
2012-11-27 09:39:00,32.7,17.4,30.40,West,270,0.0,0.0,53,0.00,,,0.00,meteohub,2012-11-27 14:39:00,
2012-11-27 09:40:00,32.7,18.0,30.40,West,270,0.0,0.0,54,0.00,,,0.00,meteohub,2012-11-27 14:40:00,
2012-11-27 09:42:00,32.7,18.0,30.40,NW,315,0.0,0.0,54,0.00,,,0.00,meteohub,2012-11-27 14:42:00,
2012-11-27 09:43:00,32.7,18.0,30.40,NW,315,0.0,0.0,54,0.00,,,0.00,meteohub,2012-11-27 14:43:00,
2012-11-27 09:45:00,32.7,18.0,30.40,North,0,0.0,0.0,54,0.00,,,0.00,meteohub,2012-11-27 14:45:00,
2012-11-27 09:47:00,32.7,18.0,30.40,NW,315,0.0,0.0,54,0.00,,,0.00,meteohub,2012-11-27 14:47:00,
2012-11-27 09:48:00,32.7,18.0,30.40,NW,315,0.0,0.0,54,0.00,,,0.00,meteohub,2012-11-27 14:48:00,
2012-11-27 09:51:00,32.7,18.0,30.40,NW,315,0.0,0.0,54,0.00,,,0.00,meteohub,2012-11-27 14:51:00,
2012-11-27 09:52:00,32.7,18.0,30.40,North,0,0.0,0.0,54,0.00,,,0.00,meteohub,2012-11-27 14:52:00,
2012-11-27 09:53:00,32.7,18.0,30.40,NW,315,0.0,0.0,54,0.00,,,0.00,meteohub,2012-11-27 14:53:00,
2012-11-27 09:57:00,32.5,17.8,30.40,NW,315,0.0,0.0,54,0.00,,,0.00,meteohub,2012-11-27 14:57:00,
2012-11-27 09:58:00,32.5,18.1,30.40,WSW,248,0.0,0.0,55,0.00,,,0.00,meteohub,2012-11-27 14:58:00,
2012-11-27 09:59:00,32.5,18.1,30.40,NW,315,0.0,0.0,55,0.00,,,0.00,meteohub,2012-11-27 14:59:00,
2012-11-27 10:03:00,32.5,18.1,30.40,NW,315,0.0,0.0,55,0.00,,,0.00,meteohub,2012-11-27 15:03:00,
2012-11-27 10:04:00,32.5,18.1,30.40,NW,315,0.0,0.0,55,0.00,,,0.00,meteohub,2012-11-27 15:04:00,
2012-11-27 10:08:00,32.0,17.6,30.39,NE,45,1.0,2.0,55,0.00,,,0.00,meteohub,2012-11-27 15:08:00,
2012-11-27 10:09:00,32.2,17.8,30.40,North,0,2.0,2.0,55,0.00,,,0.00,meteohub,2012-11-27 15:09:00,
2012-11-27 10:10:00,32.0,18.1,30.39,North,0,2.0,2.0,56,0.00,,,0.00,meteohub,2012-11-27 15:10:00,
2012-11-27 10:13:00,32.0,18.1,30.40,NE,45,1.0,2.0,56,0.00,,,0.00,meteohub,2012-11-27 15:13:00,
2012-11-27 10:14:00,32.0,18.1,30.40,WSW,248,2.0,2.0,56,0.00,,,0.00,meteohub,2012-11-27 15:14:00,
2012-11-27 10:16:00,32.0,18.1,30.39,WSW,248,2.0,2.0,56,0.00,,,0.00,meteohub,2012-11-27 15:16:00,
2012-11-27 10:19:00,32.0,18.5,30.40,NW,315,2.0,2.0,57,0.00,,,0.00,meteohub,2012-11-27 15:19:00,
2012-11-27 10:20:00,32.0,18.5,30.40,West,270,2.0,2.0,57,0.00,,,0.00,meteohub,2012-11-27 15:20:00,
2012-11-27 10:21:00,31.8,18.3,30.40,NW,315,3.0,3.0,57,0.00,,,0.00,meteohub,2012-11-27 15:21:00,
2012-11-27 10:22:00,31.8,18.3,30.39,NW,315,2.0,2.0,57,0.00,,,0.00,meteohub,2012-11-27 15:22:00,
2012-11-27 10:26:00,31.6,18.1,30.40,NW,315,2.0,3.0,57,0.00,,,0.00,meteohub,2012-11-27 15:26:00,
2012-11-27 10:27:00,31.6,18.1,30.40,NW,315,2.0,3.0,57,0.00,,,0.00,meteohub,2012-11-27 15:27:00,
2012-11-27 10:28:00,31.6,18.1,30.40,NW,315,2.0,3.0,57,0.00,,,0.00,meteohub,2012-11-27 15:28:00,
2012-11-27 10:31:00,31.6,18.5,30.40,South,180,2.0,3.0,58,0.00,,,0.00,meteohub,2012-11-27 15:31:00,
2012-11-27 10:32:00,31.6,18.5,30.40,NW,315,3.0,3.0,58,0.00,,,0.00,meteohub,2012-11-27 15:32:00,
2012-11-27 10:33:00,31.6,19.0,30.40,North,0,2.0,3.0,59,0.00,,,0.00,meteohub,2012-11-27 15:33:00,
2012-11-27 10:37:00,31.6,19.0,30.40,North,0,1.0,3.0,59,0.00,,,0.00,meteohub,2012-11-27 15:37:00,
2012-11-27 10:38:00,31.6,19.0,30.40,NW,315,1.0,3.0,59,0.00,,,0.00,meteohub,2012-11-27 15:38:00,
2012-11-27 10:40:00,31.6,19.0,30.40,NW,315,2.0,3.0,59,0.00,,,0.00,meteohub,2012-11-27 15:40:00,
2012-11-27 10:42:00,31.6,19.4,30.40,North,0,2.0,3.0,60,0.00,,,0.00,meteohub,2012-11-27 15:42:00,
2012-11-27 10:43:00,31.6,19.4,30.40,North,0,2.0,3.0,60,0.00,,,0.00,meteohub,2012-11-27 15:43:00,
2012-11-27 10:44:00,31.8,19.6,30.40,West,270,1.0,3.0,60,0.00,,,0.00,meteohub,2012-11-27 15:44:00,
2012-11-27 10:45:00,31.8,19.6,30.40,North,0,1.0,3.0,60,0.00,,,0.00,meteohub,2012-11-27 15:45:00,
2012-11-27 10:47:00,32.0,20.1,30.40,North,0,2.0,3.0,61,0.00,,,0.00,meteohub,2012-11-27 15:47:00,
2012-11-27 10:48:00,32.0,20.1,30.40,NW,315,1.0,3.0,61,0.00,,,0.00,meteohub,2012-11-27 15:48:00,
2012-11-27 10:49:00,32.0,20.1,30.40,NW,315,1.0,3.0,61,0.00,,,0.00,meteohub,2012-11-27 15:49:00,
2012-11-27 10:50:00,32.0,20.1,30.40,West,270,1.0,2.0,61,0.00,,,0.00,meteohub,2012-11-27 15:50:00,
2012-11-27 10:53:00,32.0,20.1,30.40,WSW,248,2.0,2.0,61,0.00,,,0.00,meteohub,2012-11-27 15:53:00,
2012-11-27 10:54:00,32.0,20.1,30.40,WSW,248,2.0,2.0,61,0.00,,,0.00,meteohub,2012-11-27 15:54:00,
2012-11-27 10:56:00,32.0,20.1,30.40,North,0,2.0,2.0,61,0.00,,,0.00,meteohub,2012-11-27 15:56:00,
2012-11-27 10:57:00,32.0,20.1,30.41,NW,315,2.0,2.0,61,0.00,,,0.00,meteohub,2012-11-27 15:57:00,
2012-11-27 10:59:00,31.8,20.3,30.41,WSW,248,1.0,2.0,62,0.00,,,0.00,meteohub,2012-11-27 15:59:00,
2012-11-27 11:00:00,31.8,20.3,30.41,WSW,248,1.0,2.0,62,0.00,,,0.00,meteohub,2012-11-27 16:00:00,
2012-11-27 11:01:00,32.0,20.5,30.41,NW,315,1.0,2.0,62,0.00,,,0.00,meteohub,2012-11-27 16:01:00,
2012-11-27 11:02:00,32.0,20.5,30.40,NW,315,1.0,2.0,62,0.00,,,0.00,meteohub,2012-11-27 16:02:00,
2012-11-27 11:05:00,32.0,20.5,30.41,NW,315,1.0,2.0,62,0.00,,,0.00,meteohub,2012-11-27 16:05:00,
2012-11-27 11:06:00,32.0,20.5,30.40,NW,315,1.0,2.0,62,0.00,,,0.00,meteohub,2012-11-27 16:06:00,
2012-11-27 11:07:00,32.0,20.5,30.40,North,0,2.0,2.0,62,0.00,,,0.00,meteohub,2012-11-27 16:07:00,
2012-11-27 11:11:00,31.8,20.3,30.40,North,0,2.0,3.0,62,0.00,,,0.00,meteohub,2012-11-27 16:11:00,
2012-11-27 11:12:00,31.8,20.3,30.40,North,0,2.0,3.0,62,0.00,,,0.00,meteohub,2012-11-27 16:12:00,
2012-11-27 11:13:00,31.8,20.3,30.40,NW,315,3.0,3.0,62,0.00,,,0.00,meteohub,2012-11-27 16:13:00,
2012-11-27 11:16:00,32.0,20.8,30.40,South,180,1.0,4.0,63,0.00,,,0.00,meteohub,2012-11-27 16:16:00,
2012-11-27 11:17:00,32.0,20.8,30.40,South,180,1.0,4.0,63,0.00,,,0.00,meteohub,2012-11-27 16:17:00,
2012-11-27 11:19:00,32.2,21.0,30.40,NW,315,2.0,4.0,63,0.00,,,0.00,meteohub,2012-11-27 16:19:00,
2012-11-27 11:22:00,32.2,21.0,30.40,North,0,2.0,4.0,63,0.00,,,0.00,meteohub,2012-11-27 16:22:00,
2012-11-27 11:23:00,32.2,21.0,30.40,NW,315,2.0,4.0,63,0.00,,,0.00,meteohub,2012-11-27 16:23:00,
2012-11-27 11:24:00,32.2,21.0,30.40,NW,315,2.0,4.0,63,0.00,,,0.00,meteohub,2012-11-27 16:24:00,
2012-11-27 11:27:00,32.2,21.0,30.40,West,270,2.0,4.0,63,0.00,,,0.00,meteohub,2012-11-27 16:27:00,
2012-11-27 11:28:00,32.2,21.0,30.40,West,270,2.0,4.0,63,0.00,,,0.00,meteohub,2012-11-27 16:28:00,
2012-11-27 11:29:00,32.4,21.2,30.40,NW,315,2.0,4.0,63,0.00,,,0.00,meteohub,2012-11-27 16:29:00,
2012-11-27 11:33:00,32.4,21.2,30.40,NW,315,2.0,3.0,63,0.00,,,0.00,meteohub,2012-11-27 16:33:00,
2012-11-27 11:35:00,32.4,21.2,30.40,NW,315,2.0,3.0,63,0.00,,,0.00,meteohub,2012-11-27 16:35:00,
2012-11-27 11:38:00,32.4,21.6,30.40,North,0,3.0,4.0,64,0.00,,,0.00,meteohub,2012-11-27 16:38:00,
2012-11-27 11:39:00,32.4,21.6,30.40,North,0,3.0,4.0,64,0.00,,,0.00,meteohub,2012-11-27 16:39:00,
2012-11-27 11:40:00,32.4,21.6,30.39,North,0,2.0,4.0,64,0.00,,,0.00,meteohub,2012-11-27 16:40:00,
2012-11-27 11:44:00,32.4,21.2,30.40,NW,315,2.0,4.0,63,0.00,,,0.00,meteohub,2012-11-27 16:44:00,
2012-11-27 11:45:00,32.4,21.2,30.40,North,0,2.0,4.0,63,0.00,,,0.01,meteohub,2012-11-27 16:45:00,
2012-11-27 11:49:00,32.5,21.7,30.39,NW,315,2.0,4.0,64,0.01,,,0.01,meteohub,2012-11-27 16:49:00,
2012-11-27 11:50:00,32.5,21.7,30.39,NW,315,2.0,4.0,64,0.01,,,0.01,meteohub,2012-11-27 16:50:00,
2012-11-27 11:52:00,32.7,21.9,30.39,NW,315,2.0,4.0,64,0.01,,,0.01,meteohub,2012-11-27 16:52:00,
2012-11-27 11:55:00,33.1,22.3,30.40,NW,315,3.0,4.0,64,0.01,,,0.01,meteohub,2012-11-27 16:55:00,
2012-11-27 11:58:00,33.1,22.3,30.39,NW,315,1.0,4.0,64,0.01,,,0.01,meteohub,2012-11-27 16:58:00,
2012-11-27 12:00:00,33.4,22.6,30.39,South,180,0.0,4.0,64,0.01,,,0.01,meteohub,2012-11-27 17:00:00,
2012-11-27 12:01:00,33.4,22.6,30.39,South,180,0.0,4.0,64,0.01,,,0.01,meteohub,2012-11-27 17:01:00,
2012-11-27 12:03:00,33.4,22.6,30.39,West,270,2.0,4.0,64,0.01,,,0.01,meteohub,2012-11-27 17:03:00,
2012-11-27 12:05:00,33.4,22.3,30.39,NW,315,4.0,4.0,63,0.01,,,0.01,meteohub,2012-11-27 17:05:00,
2012-11-27 12:06:00,33.4,22.3,30.39,North,0,2.0,3.0,63,0.01,,,0.01,meteohub,2012-11-27 17:06:00,
2012-11-27 12:07:00,33.3,22.1,30.39,NW,315,2.0,3.0,63,0.01,,,0.01,meteohub,2012-11-27 17:07:00,
2012-11-27 12:08:00,33.4,22.3,30.39,NW,315,1.0,3.0,63,0.01,,,0.01,meteohub,2012-11-27 17:08:00,
2012-11-27 12:11:00,33.4,21.7,30.39,North,0,2.0,4.0,62,0.01,,,0.01,meteohub,2012-11-27 17:11:00,
2012-11-27 12:12:00,33.4,21.7,30.39,NE,45,0.0,4.0,62,0.01,,,0.01,meteohub,2012-11-27 17:12:00,
2012-11-27 12:14:00,33.6,21.9,30.39,NE,45,0.0,4.0,62,0.01,,,0.01,meteohub,2012-11-27 17:14:00,
2012-11-27 12:16:00,33.8,22.1,30.39,NE,45,0.0,4.0,62,0.01,,,0.01,meteohub,2012-11-27 17:16:00,
2012-11-27 12:17:00,34.3,22.6,30.39,North,0,2.0,4.0,62,0.01,,,0.01,meteohub,2012-11-27 17:17:00,
2012-11-27 12:18:00,34.5,22.8,30.39,North,0,3.0,4.0,62,0.01,,,0.01,meteohub,2012-11-27 17:18:00,
2012-11-27 12:19:00,34.5,22.5,30.38,East,90,3.0,4.0,61,0.01,,,0.01,meteohub,2012-11-27 17:19:00,
2012-11-27 12:22:00,34.5,22.1,30.39,NE,45,1.0,3.0,60,0.02,,,0.02,meteohub,2012-11-27 17:22:00,
2012-11-27 12:23:00,34.5,21.7,30.39,WSW,248,3.0,3.0,59,0.02,,,0.02,meteohub,2012-11-27 17:23:00,
2012-11-27 12:26:00,34.0,20.3,30.39,West,270,2.0,3.0,57,0.04,,,0.04,meteohub,2012-11-27 17:26:00,
2012-11-27 12:27:00,33.8,20.1,30.39,NW,315,2.0,3.0,57,0.04,,,0.04,meteohub,2012-11-27 17:27:00,
2012-11-27 12:28:00,33.8,20.1,30.39,North,0,2.0,3.0,57,0.04,,,0.04,meteohub,2012-11-27 17:28:00,
2012-11-27 12:29:00,33.6,19.6,30.39,North,0,4.0,4.0,56,0.04,,,0.04,meteohub,2012-11-27 17:29:00,
2012-11-27 12:31:00,33.6,19.6,30.39,WSW,248,5.0,5.0,56,0.04,,,0.04,meteohub,2012-11-27 17:31:00,
2012-11-27 12:32:00,33.4,19.0,30.39,West,270,2.0,3.0,55,0.04,,,0.04,meteohub,2012-11-27 17:32:00,
2012-11-27 12:33:00,33.3,18.9,30.39,North,0,3.0,3.0,55,0.04,,,0.04,meteohub,2012-11-27 17:33:00,
2012-11-27 12:34:00,33.3,18.9,30.39,NE,45,2.0,3.0,55,0.04,,,0.04,meteohub,2012-11-27 17:34:00,
2012-11-27 12:37:00,33.1,18.3,30.39,North,0,3.0,5.0,54,0.04,,,0.04,meteohub,2012-11-27 17:37:00,
2012-11-27 12:38:00,33.1,18.3,30.39,North,0,3.0,5.0,54,0.04,,,0.04,meteohub,2012-11-27 17:38:00,
2012-11-27 12:39:00,33.1,18.3,30.39,North,0,3.0,5.0,54,0.04,,,0.04,meteohub,2012-11-27 17:39:00,
2012-11-27 12:43:00,33.1,18.3,30.38,North,0,2.0,5.0,54,0.04,,,0.04,meteohub,2012-11-27 17:43:00,
2012-11-27 12:44:00,33.3,18.5,30.38,NW,315,3.0,5.0,54,0.04,,,0.04,meteohub,2012-11-27 17:44:00,
2012-11-27 12:48:00,32.9,18.1,30.38,NW,315,4.0,5.0,54,0.04,,,0.05,meteohub,2012-11-27 17:48:00,
2012-11-27 12:49:00,32.9,18.1,30.38,North,0,3.0,5.0,54,0.04,,,0.05,meteohub,2012-11-27 17:49:00,
2012-11-27 12:50:00,32.9,17.6,30.38,North,0,4.0,5.0,53,0.04,,,0.05,meteohub,2012-11-27 17:50:00,
2012-11-27 12:55:00,32.7,17.4,30.38,NW,315,3.0,4.0,53,0.04,,,0.05,meteohub,2012-11-27 17:55:00,
2012-11-27 12:56:00,32.7,17.4,30.38,North,0,2.0,4.0,53,0.04,,,0.05,meteohub,2012-11-27 17:56:00,
2012-11-27 13:00:00,32.5,17.2,30.38,North,0,2.0,4.0,53,0.04,,,0.05,meteohub,2012-11-27 18:00:00,
2012-11-27 13:01:00,32.5,17.2,30.38,North,0,2.0,4.0,53,0.04,,,0.05,meteohub,2012-11-27 18:01:00,
2012-11-27 13:06:00,32.5,17.8,30.38,North,0,2.0,4.0,54,0.04,,,0.05,meteohub,2012-11-27 18:06:00,
2012-11-27 13:08:00,32.5,17.8,30.38,West,270,1.0,4.0,54,0.04,,,0.05,meteohub,2012-11-27 18:08:00,
2012-11-27 13:11:00,32.5,17.8,30.38,NE,45,2.0,4.0,54,0.04,,,0.05,meteohub,2012-11-27 18:11:00,
2012-11-27 13:13:00,32.7,18.0,30.38,NE,45,2.0,4.0,54,0.04,,,0.05,meteohub,2012-11-27 18:13:00,
2012-11-27 13:15:00,32.7,18.0,30.38,NW,315,1.0,4.0,54,0.04,,,0.05,meteohub,2012-11-27 18:15:00,
2012-11-27 13:16:00,32.7,18.0,30.38,NW,315,3.0,4.0,54,0.04,,,0.05,meteohub,2012-11-27 18:16:00,
2012-11-27 13:17:00,32.7,18.0,30.38,NW,315,3.0,4.0,54,0.04,,,0.05,meteohub,2012-11-27 18:17:00,
2012-11-27 13:18:00,32.9,18.1,30.38,West,270,2.0,4.0,54,0.04,,,0.05,meteohub,2012-11-27 18:18:00,
2012-11-27 13:20:00,32.9,18.1,30.38,NE,45,6.0,6.0,54,0.02,,,0.05,meteohub,2012-11-27 18:20:00,
2012-11-27 13:22:00,32.9,17.6,30.38,NE,45,2.0,4.0,53,0.02,,,0.05,meteohub,2012-11-27 18:22:00,
2012-11-27 13:24:00,32.9,17.6,30.38,East,90,7.0,7.0,53,0.02,,,0.05,meteohub,2012-11-27 18:24:00,
2012-11-27 13:25:00,32.9,17.6,30.38,NE,45,2.0,6.0,53,0.02,,,0.06,meteohub,2012-11-27 18:25:00,
2012-11-27 13:27:00,32.9,17.2,30.38,NW,315,5.0,6.0,52,0.02,,,0.06,meteohub,2012-11-27 18:27:00,
2012-11-27 13:29:00,32.7,17.1,30.38,North,0,3.0,6.0,52,0.02,,,0.06,meteohub,2012-11-27 18:29:00,
2012-11-27 13:31:00,32.7,17.1,30.38,NE,45,2.0,7.0,52,0.02,,,0.06,meteohub,2012-11-27 18:31:00,
2012-11-27 13:33:00,32.7,16.5,30.38,North,0,2.0,7.0,51,0.02,,,0.06,meteohub,2012-11-27 18:33:00,
2012-11-27 13:34:00,32.7,16.5,30.38,North,0,2.0,7.0,51,0.02,,,0.06,meteohub,2012-11-27 18:34:00,
2012-11-27 13:36:00,32.7,16.2,30.38,NW,315,3.0,7.0,50,0.02,,,0.06,meteohub,2012-11-27 18:36:00,
2012-11-27 13:37:00,32.7,16.2,30.38,NE,45,2.0,7.0,50,0.02,,,0.06,meteohub,2012-11-27 18:37:00,
2012-11-27 13:39:00,32.7,16.2,30.38,North,0,2.0,7.0,50,0.02,,,0.06,meteohub,2012-11-27 18:39:00,
2012-11-27 13:41:00,32.7,16.2,30.38,North,0,2.0,5.0,50,0.01,,,0.06,meteohub,2012-11-27 18:41:00,
2012-11-27 13:42:00,32.7,16.2,30.38,NE,45,2.0,5.0,50,0.01,,,0.06,meteohub,2012-11-27 18:42:00,
2012-11-27 13:44:00,32.7,15.6,30.38,North,0,3.0,5.0,49,0.01,,,0.06,meteohub,2012-11-27 18:44:00,
2012-11-27 13:46:00,32.7,15.6,30.38,NE,45,2.0,4.0,49,0.01,,,0.06,meteohub,2012-11-27 18:46:00,
2012-11-27 13:47:00,32.7,15.6,30.38,North,0,2.0,4.0,49,0.01,,,0.06,meteohub,2012-11-27 18:47:00,
2012-11-27 13:49:00,32.7,15.3,30.38,North,0,2.0,4.0,48,0.01,,,0.06,meteohub,2012-11-27 18:49:00,
2012-11-27 13:50:00,32.7,15.3,30.38,NW,315,2.0,4.0,48,0.01,,,0.06,meteohub,2012-11-27 18:50:00,
2012-11-27 13:53:00,32.7,15.3,30.38,East,90,2.0,4.0,48,0.01,,,0.06,meteohub,2012-11-27 18:53:00,
2012-11-27 13:55:00,32.7,15.3,30.38,West,270,2.0,4.0,48,0.01,,,0.06,meteohub,2012-11-27 18:55:00,
2012-11-27 13:56:00,32.7,15.6,30.38,NE,45,1.0,4.0,49,0.01,,,0.06,meteohub,2012-11-27 18:56:00,
2012-11-27 13:58:00,32.7,15.6,30.38,NW,315,8.0,8.0,49,0.01,,,0.06,meteohub,2012-11-27 18:58:00,
2012-11-27 14:00:00,32.7,15.6,30.38,NW,315,2.0,4.0,49,0.01,,,0.06,meteohub,2012-11-27 19:00:00,
2012-11-27 14:01:00,32.7,15.6,30.38,South,180,2.0,8.0,49,0.01,,,0.06,meteohub,2012-11-27 19:01:00,
2012-11-27 14:03:00,32.7,15.6,30.38,SE,135,2.0,8.0,49,0.01,,,0.06,meteohub,2012-11-27 19:03:00,
2012-11-27 14:05:00,32.5,15.4,30.38,NW,315,4.0,8.0,49,0.01,,,0.06,meteohub,2012-11-27 19:05:00,
2012-11-27 14:07:00,32.4,15.3,30.38,NW,315,4.0,8.0,49,0.01,,,0.06,meteohub,2012-11-27 19:07:00,
2012-11-27 14:09:00,32.4,15.8,30.38,NW,315,4.0,8.0,50,0.01,,,0.06,meteohub,2012-11-27 19:09:00,
2012-11-27 14:11:00,32.2,15.6,30.38,North,0,7.0,8.0,50,0.01,,,0.06,meteohub,2012-11-27 19:11:00,
2012-11-27 14:12:00,32.2,15.6,30.38,NE,45,4.0,8.0,50,0.01,,,0.06,meteohub,2012-11-27 19:12:00,
2012-11-27 14:14:00,32.0,15.4,30.38,West,270,5.0,8.0,50,0.01,,,0.06,meteohub,2012-11-27 19:14:00,
2012-11-27 14:16:00,32.0,16.0,30.38,West,270,8.0,8.0,51,0.01,,,0.06,meteohub,2012-11-27 19:16:00,
2012-11-27 14:17:00,32.0,16.0,30.38,NW,315,5.0,8.0,51,0.01,,,0.06,meteohub,2012-11-27 19:17:00,
2012-11-27 14:18:00,32.0,16.0,30.38,North,0,8.0,8.0,51,0.01,,,0.06,meteohub,2012-11-27 19:18:00,
2012-11-27 14:19:00,31.8,15.8,30.38,NW,315,4.0,8.0,51,0.01,,,0.06,meteohub,2012-11-27 19:19:00,
2012-11-27 14:22:00,31.8,15.8,30.38,SE,135,1.0,8.0,51,0.00,,,0.06,meteohub,2012-11-27 19:22:00,
2012-11-27 14:23:00,32.0,16.3,30.38,NE,45,4.0,8.0,52,0.00,,,0.06,meteohub,2012-11-27 19:23:00,
2012-11-27 14:24:00,32.0,16.3,30.38,NW,315,3.0,8.0,52,0.00,,,0.06,meteohub,2012-11-27 19:24:00,
2012-11-27 14:27:00,32.0,16.3,30.38,NW,315,2.0,8.0,52,0.00,,,0.06,meteohub,2012-11-27 19:27:00,
2012-11-27 14:29:00,32.2,16.5,30.38,NW,315,2.0,8.0,52,0.00,,,0.06,meteohub,2012-11-27 19:29:00,
2012-11-27 14:30:00,32.2,16.5,30.38,North,0,2.0,8.0,52,0.00,,,0.06,meteohub,2012-11-27 19:30:00,
2012-11-27 14:32:00,32.2,16.5,30.38,NW,315,6.0,8.0,52,0.00,,,0.06,meteohub,2012-11-27 19:32:00,
2012-11-27 14:33:00,32.2,16.5,30.38,West,270,4.0,8.0,52,0.00,,,0.06,meteohub,2012-11-27 19:33:00,
2012-11-27 14:35:00,32.2,16.5,30.38,North,0,3.0,8.0,52,0.00,,,0.06,meteohub,2012-11-27 19:35:00,
2012-11-27 14:37:00,32.0,16.3,30.38,WSW,248,3.0,6.0,52,0.00,,,0.06,meteohub,2012-11-27 19:37:00,
2012-11-27 14:39:00,32.2,16.5,30.38,North,0,5.0,6.0,52,0.00,,,0.06,meteohub,2012-11-27 19:39:00,
2012-11-27 14:40:00,32.0,16.3,30.38,North,0,5.0,6.0,52,0.00,,,0.06,meteohub,2012-11-27 19:40:00,
2012-11-27 14:42:00,32.0,16.3,30.38,NW,315,4.0,6.0,52,0.00,,,0.06,meteohub,2012-11-27 19:42:00,
2012-11-27 14:44:00,32.0,16.3,30.38,West,270,4.0,6.0,52,0.00,,,0.06,meteohub,2012-11-27 19:44:00,
2012-11-27 14:45:00,32.0,16.3,30.38,West,270,4.0,6.0,52,0.00,,,0.06,meteohub,2012-11-27 19:45:00,
2012-11-27 14:46:00,32.0,16.3,30.38,West,270,4.0,6.0,52,0.00,,,0.06,meteohub,2012-11-27 19:46:00,
2012-11-27 14:47:00,32.2,16.5,30.38,East,90,2.0,6.0,52,0.00,,,0.06,meteohub,2012-11-27 19:47:00,
2012-11-27 14:50:00,32.2,16.2,30.38,SSW,203,4.0,6.0,51,0.00,,,0.06,meteohub,2012-11-27 19:50:00,
2012-11-27 14:51:00,32.2,16.2,30.38,NW,315,4.0,5.0,51,0.00,,,0.06,meteohub,2012-11-27 19:51:00,
2012-11-27 14:52:00,32.2,15.6,30.38,NW,315,3.0,5.0,50,0.00,,,0.06,meteohub,2012-11-27 19:52:00,
2012-11-27 14:55:00,32.2,15.1,30.38,North,0,3.0,5.0,49,0.00,,,0.06,meteohub,2012-11-27 19:55:00,
2012-11-27 14:56:00,32.2,15.1,30.38,West,270,2.0,5.0,49,0.00,,,0.06,meteohub,2012-11-27 19:56:00,
2012-11-27 14:58:00,32.4,15.3,30.38,NW,315,2.0,5.0,49,0.00,,,0.06,meteohub,2012-11-27 19:58:00,
2012-11-27 15:00:00,32.4,15.3,30.38,NW,315,2.0,4.0,49,0.00,,,0.06,meteohub,2012-11-27 20:00:00,
2012-11-27 15:01:00,32.4,15.3,30.38,NW,315,2.0,4.0,49,0.00,,,0.06,meteohub,2012-11-27 20:01:00,
2012-11-27 15:03:00,32.4,14.9,30.38,NW,315,5.0,5.0,48,0.00,,,0.06,meteohub,2012-11-27 20:03:00,
2012-11-27 15:07:00,32.4,14.4,30.39,NW,315,2.0,5.0,47,0.00,,,0.06,meteohub,2012-11-27 20:07:00,
2012-11-27 15:08:00,32.4,13.8,30.38,NE,45,3.0,5.0,46,0.00,,,0.06,meteohub,2012-11-27 20:08:00,
2012-11-27 15:09:00,32.4,13.8,30.38,North,0,3.0,5.0,46,0.00,,,0.06,meteohub,2012-11-27 20:09:00,
2012-11-27 15:12:00,32.4,13.5,30.38,NE,45,4.0,5.0,45,0.00,,,0.06,meteohub,2012-11-27 20:12:00,
2012-11-27 15:14:00,32.2,13.3,30.39,North,0,2.0,5.0,45,0.00,,,0.06,meteohub,2012-11-27 20:14:00,
2012-11-27 15:17:00,32.2,13.3,30.38,South,180,2.0,5.0,45,0.00,,,0.06,meteohub,2012-11-27 20:17:00,
2012-11-27 15:18:00,32.2,13.3,30.38,South,180,2.0,5.0,45,0.00,,,0.06,meteohub,2012-11-27 20:18:00,
2012-11-27 15:19:00,32.2,13.3,30.38,NW,315,2.0,5.0,45,0.00,,,0.06,meteohub,2012-11-27 20:19:00,
2012-11-27 15:23:00,32.2,13.6,30.38,North,0,2.0,4.0,46,0.00,,,0.06,meteohub,2012-11-27 20:23:00,
2012-11-27 15:24:00,32.2,13.6,30.38,North,0,2.0,4.0,46,0.00,,,0.06,meteohub,2012-11-27 20:24:00,
2012-11-27 15:29:00,32.0,13.6,30.38,SE,135,3.0,4.0,46,0.00,,,0.06,meteohub,2012-11-27 20:29:00,
2012-11-27 15:30:00,32.0,13.1,30.38,NE,45,4.0,4.0,45,0.00,,,0.06,meteohub,2012-11-27 20:30:00,
2012-11-27 15:34:00,32.0,13.6,30.38,NW,315,3.0,5.0,46,0.00,,,0.06,meteohub,2012-11-27 20:34:00,
2012-11-27 15:35:00,32.0,13.6,30.38,NW,315,3.0,5.0,46,0.00,,,0.06,meteohub,2012-11-27 20:35:00,
2012-11-27 15:36:00,31.8,13.5,30.38,SE,135,2.0,5.0,46,0.00,,,0.06,meteohub,2012-11-27 20:36:00,
2012-11-27 15:39:00,31.8,13.8,30.38,North,0,4.0,5.0,47,0.00,,,0.06,meteohub,2012-11-27 20:39:00,
2012-11-27 15:40:00,31.8,13.8,30.38,North,0,5.0,5.0,47,0.00,,,0.06,meteohub,2012-11-27 20:40:00,
2012-11-27 15:41:00,31.8,13.8,30.38,NE,45,3.0,5.0,47,0.00,,,0.06,meteohub,2012-11-27 20:41:00,
2012-11-27 15:45:00,31.6,13.3,30.38,North,0,4.0,5.0,46,0.00,,,0.06,meteohub,2012-11-27 20:45:00,
2012-11-27 15:46:00,31.8,13.5,30.38,North,0,4.0,5.0,46,0.00,,,0.06,meteohub,2012-11-27 20:46:00,
2012-11-27 15:51:00,31.6,12.7,30.38,North,0,6.0,7.0,45,0.00,,,0.06,meteohub,2012-11-27 20:51:00,
2012-11-27 15:52:00,31.6,12.7,30.38,NW,315,2.0,7.0,45,0.00,,,0.06,meteohub,2012-11-27 20:52:00,
2012-11-27 15:56:00,31.6,12.7,30.39,NW,315,4.0,7.0,45,0.00,,,0.06,meteohub,2012-11-27 20:56:00,
2012-11-27 15:57:00,31.6,12.7,30.39,West,270,6.0,7.0,45,0.00,,,0.06,meteohub,2012-11-27 20:57:00,
2012-11-27 16:01:00,31.5,12.0,30.39,NW,315,4.0,7.0,44,0.00,,,0.06,meteohub,2012-11-27 21:01:00,
2012-11-27 16:02:00,31.5,12.0,30.38,NW,315,4.0,7.0,44,0.00,,,0.06,meteohub,2012-11-27 21:02:00,
2012-11-27 16:07:00,31.6,12.2,30.38,NE,45,2.0,6.0,44,0.00,,,0.06,meteohub,2012-11-27 21:07:00,
2012-11-27 16:08:00,31.6,12.2,30.38,North,0,2.0,6.0,44,0.00,,,0.06,meteohub,2012-11-27 21:08:00,
2012-11-27 16:12:00,31.5,12.0,30.38,North,0,3.0,6.0,44,0.00,,,0.06,meteohub,2012-11-27 21:12:00,
2012-11-27 16:13:00,31.5,12.0,30.38,North,0,4.0,6.0,44,0.00,,,0.06,meteohub,2012-11-27 21:13:00,
2012-11-27 16:14:00,31.5,12.0,30.38,North,0,2.0,6.0,44,0.00,,,0.06,meteohub,2012-11-27 21:14:00,
2012-11-27 16:17:00,31.5,12.0,30.39,East,90,2.0,4.0,44,0.00,,,0.06,meteohub,2012-11-27 21:17:00,
2012-11-27 16:19:00,31.5,12.6,30.38,NW,315,2.0,4.0,45,0.00,,,0.06,meteohub,2012-11-27 21:19:00,
2012-11-27 16:22:00,31.5,12.6,30.38,North,0,2.0,4.0,45,0.00,,,0.06,meteohub,2012-11-27 21:22:00,
2012-11-27 16:24:00,31.5,12.6,30.37,NW,315,3.0,4.0,45,0.00,,,0.06,meteohub,2012-11-27 21:24:00,
2012-11-27 16:25:00,31.5,12.6,30.37,NW,315,3.0,4.0,45,0.00,,,0.06,meteohub,2012-11-27 21:25:00,
2012-11-27 16:27:00,31.3,12.4,30.38,North,0,4.0,4.0,45,0.00,,,0.06,meteohub,2012-11-27 21:27:00,
2012-11-27 16:29:00,31.3,12.4,30.38,North,0,6.0,6.0,45,0.00,,,0.06,meteohub,2012-11-27 21:29:00,
2012-11-27 16:30:00,31.3,12.4,30.38,North,0,6.0,6.0,45,0.00,,,0.06,meteohub,2012-11-27 21:30:00,
2012-11-27 16:32:00,31.3,12.4,30.38,NW,315,7.0,7.0,45,0.00,,,0.06,meteohub,2012-11-27 21:32:00,
2012-11-27 16:34:00,31.3,12.4,30.38,NW,315,3.0,6.0,45,0.00,,,0.06,meteohub,2012-11-27 21:34:00,
2012-11-27 16:35:00,31.3,12.4,30.38,North,0,5.0,6.0,45,0.00,,,0.06,meteohub,2012-11-27 21:35:00,
2012-11-27 16:37:00,31.3,12.9,30.38,SE,135,2.0,6.0,46,0.00,,,0.06,meteohub,2012-11-27 21:37:00,
2012-11-27 16:39:00,31.3,12.9,30.38,North,0,4.0,6.0,46,0.00,,,0.06,meteohub,2012-11-27 21:39:00,
2012-11-27 16:40:00,31.3,12.9,30.38,NW,315,4.0,7.0,46,0.00,,,0.06,meteohub,2012-11-27 21:40:00,
2012-11-27 16:43:00,31.1,12.7,30.38,NW,315,2.0,7.0,46,0.00,,,0.06,meteohub,2012-11-27 21:43:00,
2012-11-27 16:45:00,31.1,12.7,30.38,NW,315,2.0,7.0,46,0.00,,,0.06,meteohub,2012-11-27 21:45:00,
2012-11-27 16:46:00,31.1,12.7,30.38,South,180,2.0,7.0,46,0.00,,,0.06,meteohub,2012-11-27 21:46:00,
2012-11-27 16:48:00,31.1,13.3,30.38,NW,315,3.0,7.0,47,0.00,,,0.06,meteohub,2012-11-27 21:48:00,
2012-11-27 16:51:00,31.1,13.3,30.38,North,0,5.0,6.0,47,0.00,,,0.06,meteohub,2012-11-27 21:51:00,
2012-11-27 16:52:00,31.1,13.3,30.38,North,0,2.0,6.0,47,0.00,,,0.06,meteohub,2012-11-27 21:52:00,
2012-11-27 16:55:00,31.1,13.3,30.38,NE,45,2.0,6.0,47,0.00,,,0.06,meteohub,2012-11-27 21:55:00,
2012-11-27 16:56:00,31.1,13.3,30.38,NW,315,4.0,5.0,47,0.00,,,0.06,meteohub,2012-11-27 21:56:00,
2012-11-27 16:58:00,31.1,13.3,30.38,North,0,2.0,5.0,47,0.00,,,0.06,meteohub,2012-11-27 21:58:00,
2012-11-27 17:00:00,31.1,13.3,30.38,North,0,2.0,5.0,47,0.00,,,0.06,meteohub,2012-11-27 22:00:00,
2012-11-27 17:02:00,31.1,13.3,30.38,North,0,4.0,5.0,47,0.00,,,0.06,meteohub,2012-11-27 22:02:00,
2012-11-27 17:04:00,31.1,13.3,30.38,West,270,2.0,5.0,47,0.00,,,0.06,meteohub,2012-11-27 22:04:00,
2012-11-27 17:05:00,31.1,13.3,30.38,NW,315,4.0,5.0,47,0.00,,,0.06,meteohub,2012-11-27 22:05:00,
2012-11-27 17:07:00,31.1,13.3,30.38,East,90,1.0,5.0,47,0.00,,,0.06,meteohub,2012-11-27 22:07:00,
2012-11-27 17:10:00,30.9,13.1,30.38,South,180,0.0,5.0,47,0.00,,,0.06,meteohub,2012-11-27 22:10:00,
2012-11-27 17:11:00,30.9,13.1,30.38,South,180,1.0,4.0,47,0.00,,,0.06,meteohub,2012-11-27 22:11:00,
2012-11-27 17:12:00,30.9,13.1,30.38,South,180,2.0,4.0,47,0.00,,,0.06,meteohub,2012-11-27 22:12:00,
2012-11-27 17:13:00,30.9,13.1,30.38,South,180,2.0,4.0,47,0.00,,,0.06,meteohub,2012-11-27 22:13:00,
2012-11-27 17:15:00,30.9,13.1,30.38,NW,315,2.0,4.0,47,0.00,,,0.06,meteohub,2012-11-27 22:15:00,
2012-11-27 17:16:00,30.9,13.1,30.38,NW,315,2.0,4.0,47,0.00,,,0.06,meteohub,2012-11-27 22:16:00,
2012-11-27 17:18:00,30.9,13.1,30.38,NW,315,2.0,4.0,47,0.00,,,0.06,meteohub,2012-11-27 22:18:00,
2012-11-27 17:19:00,30.9,13.1,30.38,NW,315,2.0,4.0,47,0.00,,,0.06,meteohub,2012-11-27 22:19:00,
2012-11-27 17:20:00,30.9,13.1,30.38,NW,315,2.0,4.0,47,0.00,,,0.06,meteohub,2012-11-27 22:20:00,
2012-11-27 17:21:00,30.9,13.1,30.38,NW,315,2.0,4.0,47,0.00,,,0.06,meteohub,2012-11-27 22:21:00,
2012-11-27 17:23:00,30.9,12.6,30.39,NE,45,2.0,4.0,46,0.00,,,0.06,meteohub,2012-11-27 22:23:00,
2012-11-27 17:24:00,30.9,12.6,30.38,NW,315,4.0,4.0,46,0.00,,,0.06,meteohub,2012-11-27 22:24:00,
2012-11-27 17:26:00,30.9,12.6,30.39,NW,315,2.0,4.0,46,0.00,,,0.06,meteohub,2012-11-27 22:26:00,
2012-11-27 17:28:00,30.9,12.6,30.39,North,0,2.0,4.0,46,0.00,,,0.06,meteohub,2012-11-27 22:28:00,
2012-11-27 17:30:00,30.9,12.6,30.39,NW,315,2.0,4.0,46,0.00,,,0.06,meteohub,2012-11-27 22:30:00,
2012-11-27 17:32:00,30.9,12.0,30.39,NE,45,3.0,4.0,45,0.00,,,0.06,meteohub,2012-11-27 22:32:00,
2012-11-27 17:33:00,30.9,12.0,30.38,North,0,1.0,4.0,45,0.00,,,0.06,meteohub,2012-11-27 22:33:00,
2012-11-27 17:34:00,30.9,12.0,30.38,North,0,1.0,4.0,45,0.00,,,0.06,meteohub,2012-11-27 22:34:00,
2012-11-27 17:36:00,30.7,11.8,30.38,North,0,4.0,5.0,45,0.00,,,0.06,meteohub,2012-11-27 22:36:00,
2012-11-27 17:37:00,30.7,11.8,30.38,North,0,3.0,5.0,45,0.00,,,0.06,meteohub,2012-11-27 22:37:00,
2012-11-27 17:38:00,30.7,11.5,30.38,North,0,2.0,5.0,44,0.00,,,0.06,meteohub,2012-11-27 22:38:00,
2012-11-27 17:39:00,30.7,11.5,30.38,North,0,2.0,5.0,44,0.00,,,0.06,meteohub,2012-11-27 22:39:00,
2012-11-27 17:41:00,30.7,11.5,30.38,NE,45,2.0,5.0,44,0.00,,,0.06,meteohub,2012-11-27 22:41:00,
2012-11-27 17:43:00,30.7,11.5,30.38,NW,315,2.0,5.0,44,0.00,,,0.06,meteohub,2012-11-27 22:43:00,
2012-11-27 17:44:00,30.7,11.5,30.38,NW,315,2.0,5.0,44,0.00,,,0.06,meteohub,2012-11-27 22:44:00,
2012-11-27 17:47:00,30.7,10.9,30.38,West,270,1.0,5.0,43,0.00,,,0.06,meteohub,2012-11-27 22:47:00,
2012-11-27 17:48:00,30.7,10.9,30.39,North,0,1.0,5.0,43,0.00,,,0.06,meteohub,2012-11-27 22:48:00,
2012-11-27 17:49:00,30.7,10.9,30.39,North,0,2.0,5.0,43,0.00,,,0.06,meteohub,2012-11-27 22:49:00,
2012-11-27 17:52:00,30.7,10.9,30.39,NW,315,2.0,4.0,43,0.00,,,0.06,meteohub,2012-11-27 22:52:00,
2012-11-27 17:54:00,30.6,10.8,30.38,NE,45,4.0,4.0,43,0.00,,,0.06,meteohub,2012-11-27 22:54:00,
2012-11-27 17:55:00,30.6,10.8,30.39,NW,315,2.0,4.0,43,0.00,,,0.06,meteohub,2012-11-27 22:55:00,
2012-11-27 17:58:00,30.6,10.2,30.39,NW,315,2.0,4.0,42,0.00,,,0.06,meteohub,2012-11-27 22:58:00,
2012-11-27 17:59:00,30.6,10.2,30.39,North,0,2.0,4.0,42,0.00,,,0.06,meteohub,2012-11-27 22:59:00,
2012-11-27 18:01:00,30.6,10.2,30.39,West,270,2.0,4.0,42,0.00,,,0.06,meteohub,2012-11-27 23:01:00,
2012-11-27 18:03:00,30.6,10.8,30.39,ESE,113,3.0,4.0,43,0.00,,,0.06,meteohub,2012-11-27 23:03:00,
2012-11-27 18:04:00,30.6,10.8,30.39,North,0,3.0,4.0,43,0.00,,,0.06,meteohub,2012-11-27 23:04:00,
2012-11-27 18:05:00,30.6,10.2,30.39,North,0,3.0,4.0,42,0.00,,,0.06,meteohub,2012-11-27 23:05:00,
2012-11-27 18:06:00,30.6,10.2,30.40,North,0,5.0,5.0,42,0.00,,,0.06,meteohub,2012-11-27 23:06:00,
2012-11-27 18:09:00,30.6,10.2,30.40,North,0,2.0,4.0,42,0.00,,,0.06,meteohub,2012-11-27 23:09:00,
2012-11-27 18:10:00,30.6,10.2,30.40,North,0,4.0,8.0,42,0.00,,,0.06,meteohub,2012-11-27 23:10:00,
2012-11-27 18:11:00,30.6,10.2,30.40,North,0,2.0,8.0,42,0.00,,,0.06,meteohub,2012-11-27 23:11:00,
2012-11-27 18:14:00,30.6,9.7,30.40,West,270,3.0,8.0,41,0.00,,,0.06,meteohub,2012-11-27 23:14:00,
2012-11-27 18:15:00,30.6,9.7,30.40,West,270,3.0,8.0,41,0.00,,,0.06,meteohub,2012-11-27 23:15:00,
2012-11-27 18:16:00,30.6,9.7,30.40,NW,315,2.0,8.0,41,0.00,,,0.06,meteohub,2012-11-27 23:16:00,
2012-11-27 18:17:00,30.6,9.7,30.40,NW,315,2.0,8.0,41,0.00,,,0.06,meteohub,2012-11-27 23:17:00,
2012-11-27 18:19:00,30.6,9.7,30.40,NE,45,2.0,8.0,41,0.00,,,0.06,meteohub,2012-11-27 23:19:00,
2012-11-27 18:20:00,30.6,9.7,30.40,NW,315,2.0,8.0,41,0.00,,,0.06,meteohub,2012-11-27 23:20:00,
2012-11-27 18:21:00,30.4,9.5,30.40,SE,135,1.0,8.0,41,0.00,,,0.06,meteohub,2012-11-27 23:21:00,
2012-11-27 18:22:00,30.4,9.5,30.40,North,0,2.0,8.0,41,0.00,,,0.06,meteohub,2012-11-27 23:22:00,
2012-11-27 18:25:00,30.4,9.5,30.40,North,0,3.0,8.0,41,0.00,,,0.06,meteohub,2012-11-27 23:25:00,
2012-11-27 18:27:00,30.4,8.4,30.40,NW,315,2.0,4.0,39,0.00,,,0.06,meteohub,2012-11-27 23:27:00,
2012-11-27 18:28:00,30.4,8.4,30.40,NW,315,2.0,4.0,39,0.00,,,0.06,meteohub,2012-11-27 23:28:00,
2012-11-27 18:30:00,30.4,8.4,30.40,North,0,4.0,4.0,39,0.00,,,0.06,meteohub,2012-11-27 23:30:00,
2012-11-27 18:31:00,30.4,8.4,30.40,West,270,6.0,6.0,39,0.00,,,0.06,meteohub,2012-11-27 23:31:00,
2012-11-27 18:33:00,30.4,7.9,30.41,North,0,3.0,4.0,38,0.00,,,0.06,meteohub,2012-11-27 23:33:00,
2012-11-27 18:35:00,30.4,7.2,30.40,NE,45,2.0,4.0,37,0.00,,,0.06,meteohub,2012-11-27 23:35:00,
2012-11-27 18:36:00,30.4,7.2,30.41,NE,45,1.0,6.0,37,0.00,,,0.06,meteohub,2012-11-27 23:36:00,
2012-11-27 18:38:00,30.2,7.0,30.41,North,0,2.0,6.0,37,0.00,,,0.06,meteohub,2012-11-27 23:38:00,
2012-11-27 18:39:00,30.2,7.0,30.40,NW,315,1.0,6.0,37,0.00,,,0.06,meteohub,2012-11-27 23:39:00,
2012-11-27 18:41:00,30.2,7.0,30.41,NW,315,2.0,6.0,37,0.00,,,0.06,meteohub,2012-11-27 23:41:00,
2012-11-27 18:43:00,30.2,6.4,30.40,NE,45,4.0,6.0,36,0.00,,,0.06,meteohub,2012-11-27 23:43:00,
2012-11-27 18:44:00,30.2,6.4,30.41,NE,45,2.0,6.0,36,0.00,,,0.06,meteohub,2012-11-27 23:44:00,
2012-11-27 18:46:00,30.2,5.9,30.41,NW,315,2.0,6.0,35,0.00,,,0.06,meteohub,2012-11-27 23:46:00,
2012-11-27 18:47:00,30.2,5.9,30.41,NW,315,2.0,6.0,35,0.00,,,0.06,meteohub,2012-11-27 23:47:00,
2012-11-27 18:49:00,30.2,5.2,30.41,NE,45,2.0,6.0,34,0.00,,,0.06,meteohub,2012-11-27 23:49:00,
2012-11-27 18:50:00,30.2,4.5,30.40,North,0,1.0,6.0,33,0.00,,,0.06,meteohub,2012-11-27 23:50:00,
2012-11-27 18:52:00,30.2,4.5,30.40,North,0,2.0,4.0,33,0.00,,,0.06,meteohub,2012-11-27 23:52:00,
2012-11-27 18:53:00,30.2,4.5,30.40,North,0,2.0,4.0,33,0.00,,,0.06,meteohub,2012-11-27 23:53:00,
2012-11-27 18:55:00,30.2,4.5,30.40,WSW,248,0.0,4.0,33,0.00,,,0.06,meteohub,2012-11-27 23:55:00,
2012-11-27 18:56:00,30.2,4.5,30.40,West,270,1.0,4.0,33,0.00,,,0.06,meteohub,2012-11-27 23:56:00,
2012-11-27 18:57:00,30.2,4.5,30.40,South,180,1.0,4.0,33,0.00,,,0.06,meteohub,2012-11-27 23:57:00,
2012-11-27 18:58:00,30.2,4.5,30.40,WNW,293,2.0,4.0,33,0.00,,,0.06,meteohub,2012-11-27 23:58:00,
2012-11-27 19:01:00,30.0,3.7,30.41,North,0,2.0,3.0,32,0.00,,,0.06,meteohub,2012-11-28 00:01:00,
2012-11-27 19:02:00,30.0,3.7,30.40,North,0,2.0,3.0,32,0.00,,,0.06,meteohub,2012-11-28 00:02:00,
2012-11-27 19:03:00,30.0,3.7,30.41,North,0,2.0,3.0,32,0.00,,,0.06,meteohub,2012-11-28 00:03:00,
2012-11-27 19:06:00,30.0,3.7,30.40,North,0,2.0,2.0,32,0.00,,,0.06,meteohub,2012-11-28 00:06:00,
2012-11-27 19:07:00,30.0,3.7,30.41,North,0,2.0,2.0,32,0.00,,,0.06,meteohub,2012-11-28 00:07:00,
2012-11-27 19:08:00,30.0,3.7,30.41,North,0,2.0,2.0,32,0.00,,,0.06,meteohub,2012-11-28 00:08:00,
2012-11-27 19:09:00,30.2,2.5,30.41,NW,315,1.0,2.0,30,0.00,,,0.06,meteohub,2012-11-28 00:09:00,
2012-11-27 19:11:00,30.2,2.5,30.41,NE,45,1.0,2.0,30,0.00,,,0.06,meteohub,2012-11-28 00:11:00,
2012-11-27 19:13:00,30.0,1.6,30.41,NW,315,2.0,2.0,29,0.00,,,0.06,meteohub,2012-11-28 00:13:00,
2012-11-27 19:14:00,30.0,0.9,30.41,NW,315,4.0,4.0,28,0.00,,,0.06,meteohub,2012-11-28 00:14:00,
2012-11-27 19:17:00,30.0,-0.8,30.41,NW,315,3.0,4.0,26,0.00,,,0.06,meteohub,2012-11-28 00:17:00,
2012-11-27 19:18:00,30.0,-0.8,30.41,NW,315,2.0,4.0,26,0.00,,,0.06,meteohub,2012-11-28 00:18:00,
2012-11-27 19:19:00,30.0,-0.8,30.41,WSW,248,2.0,4.0,26,0.00,,,0.06,meteohub,2012-11-28 00:19:00,
2012-11-27 19:22:00,30.0,-0.8,30.41,WSW,248,1.0,4.0,26,0.00,,,0.06,meteohub,2012-11-28 00:22:00,
2012-11-27 19:23:00,30.0,-0.8,30.41,West,270,1.0,4.0,26,0.00,,,0.06,meteohub,2012-11-28 00:23:00,
2012-11-27 19:24:00,30.0,-0.8,30.41,West,270,2.0,4.0,26,0.00,,,0.06,meteohub,2012-11-28 00:24:00,
2012-11-27 19:27:00,30.0,-0.8,30.41,NW,315,1.0,4.0,26,0.00,,,0.06,meteohub,2012-11-28 00:27:00,
2012-11-27 19:29:00,29.8,-0.9,30.41,NW,315,1.0,4.0,26,0.00,,,0.06,meteohub,2012-11-28 00:29:00,
2012-11-27 19:30:00,29.8,-0.9,30.41,NW,315,2.0,4.0,26,0.00,,,0.06,meteohub,2012-11-28 00:30:00,
2012-11-27 19:33:00,29.8,-0.9,30.41,North,0,1.0,4.0,26,0.00,,,0.06,meteohub,2012-11-28 00:33:00,
2012-11-27 19:34:00,29.8,-0.9,30.42,North,0,2.0,4.0,26,0.00,,,0.06,meteohub,2012-11-28 00:34:00,
2012-11-27 19:36:00,29.8,-1.7,30.42,NW,315,2.0,3.0,25,0.00,,,0.06,meteohub,2012-11-28 00:36:00,
2012-11-27 19:39:00,29.8,-2.6,30.42,West,270,2.0,3.0,24,0.00,,,0.06,meteohub,2012-11-28 00:39:00,
2012-11-27 19:40:00,29.8,-2.6,30.42,North,0,3.0,3.0,24,0.00,,,0.06,meteohub,2012-11-28 00:40:00,
2012-11-27 19:41:00,29.8,-1.7,30.42,NW,315,1.0,4.0,25,0.00,,,0.06,meteohub,2012-11-28 00:41:00,
2012-11-27 19:45:00,29.8,-2.6,30.41,NW,315,3.0,4.0,24,0.00,,,0.06,meteohub,2012-11-28 00:45:00,
2012-11-27 19:46:00,29.8,-2.6,30.41,NW,315,4.0,4.0,24,0.00,,,0.06,meteohub,2012-11-28 00:46:00,
2012-11-27 19:47:00,29.8,-2.6,30.41,East,90,2.0,4.0,24,0.00,,,0.06,meteohub,2012-11-28 00:47:00,
2012-11-27 19:50:00,29.8,-1.7,30.41,West,270,3.0,4.0,25,0.00,,,0.06,meteohub,2012-11-28 00:50:00,
2012-11-27 19:51:00,29.8,-2.6,30.41,North,0,2.0,4.0,24,0.00,,,0.06,meteohub,2012-11-28 00:51:00,
2012-11-27 19:52:00,29.8,-1.7,30.41,North,0,1.0,4.0,25,0.00,,,0.06,meteohub,2012-11-28 00:52:00,
2012-11-27 19:56:00,29.8,-2.6,30.41,North,0,2.0,4.0,24,0.00,,,0.06,meteohub,2012-11-28 00:56:00,
2012-11-27 19:57:00,29.8,-2.6,30.41,NW,315,2.0,4.0,24,0.00,,,0.06,meteohub,2012-11-28 00:57:00,
2012-11-27 20:01:00,29.8,-3.5,30.41,NW,315,2.0,4.0,23,0.00,,,0.06,meteohub,2012-11-28 01:01:00,
2012-11-27 20:02:00,29.8,-3.5,30.41,NW,315,2.0,4.0,23,0.00,,,0.06,meteohub,2012-11-28 01:02:00,
2012-11-27 20:03:00,29.8,-3.5,30.41,NW,315,2.0,4.0,23,0.00,,,0.06,meteohub,2012-11-28 01:03:00,
2012-11-27 20:07:00,29.7,-2.7,30.42,North,0,5.0,5.0,24,0.00,,,0.06,meteohub,2012-11-28 01:07:00,
2012-11-27 20:08:00,29.7,-2.7,30.41,North,0,2.0,4.0,24,0.00,,,0.06,meteohub,2012-11-28 01:08:00,
2012-11-27 20:13:00,29.7,-3.6,30.41,North,0,2.0,5.0,23,0.00,,,0.06,meteohub,2012-11-28 01:13:00,
2012-11-27 20:14:00,29.7,-3.6,30.42,North,0,4.0,5.0,23,0.00,,,0.06,meteohub,2012-11-28 01:14:00,
2012-11-27 20:15:00,29.5,-3.8,30.41,NW,315,3.0,5.0,23,0.00,,,0.06,meteohub,2012-11-28 01:15:00,
2012-11-27 20:18:00,29.5,-3.8,30.42,NW,315,4.0,5.0,23,0.00,,,0.06,meteohub,2012-11-28 01:18:00,
2012-11-27 20:20:00,29.5,-2.9,30.41,NW,315,2.0,5.0,24,0.00,,,0.06,meteohub,2012-11-28 01:20:00,
2012-11-27 20:23:00,29.3,-3.1,30.42,NW,315,2.0,5.0,24,0.00,,,0.06,meteohub,2012-11-28 01:23:00,
2012-11-27 20:24:00,29.3,-3.1,30.41,NW,315,2.0,5.0,24,0.00,,,0.06,meteohub,2012-11-28 01:24:00,
2012-11-27 20:25:00,29.1,-2.4,30.41,NW,315,1.0,5.0,25,0.00,,,0.06,meteohub,2012-11-28 01:25:00,
2012-11-27 20:28:00,28.9,-2.6,30.41,North,0,2.0,4.0,25,0.00,,,0.06,meteohub,2012-11-28 01:28:00,
2012-11-27 20:29:00,28.9,-2.6,30.41,North,0,2.0,4.0,25,0.00,,,0.06,meteohub,2012-11-28 01:29:00,
2012-11-27 20:31:00,28.9,-2.6,30.41,North,0,2.0,4.0,25,0.00,,,0.06,meteohub,2012-11-28 01:31:00,
2012-11-27 20:34:00,28.8,-1.8,30.42,East,90,1.0,4.0,26,0.00,,,0.06,meteohub,2012-11-28 01:34:00,
2012-11-27 20:37:00,28.6,-1.1,30.41,NE,45,2.0,2.0,27,0.00,,,0.06,meteohub,2012-11-28 01:37:00,
2012-11-27 20:39:00,28.6,-1.1,30.42,West,270,0.0,2.0,27,0.00,,,0.06,meteohub,2012-11-28 01:39:00,
2012-11-27 20:40:00,28.6,-1.1,30.42,West,270,0.0,2.0,27,0.00,,,0.06,meteohub,2012-11-28 01:40:00,
2012-11-27 20:42:00,28.6,-2.0,30.42,NE,45,2.0,2.0,26,0.00,,,0.06,meteohub,2012-11-28 01:42:00,
2012-11-27 20:45:00,28.6,-2.7,30.41,NE,45,2.0,2.0,25,0.00,,,0.06,meteohub,2012-11-28 01:45:00,
2012-11-27 20:46:00,28.6,-2.7,30.42,West,270,2.0,3.0,25,0.00,,,0.06,meteohub,2012-11-28 01:46:00,
2012-11-27 20:47:00,28.6,-2.7,30.42,West,270,2.0,3.0,25,0.00,,,0.06,meteohub,2012-11-28 01:47:00,
2012-11-27 20:50:00,28.8,-2.6,30.42,WSW,248,2.0,3.0,25,0.00,,,0.06,meteohub,2012-11-28 01:50:00,
2012-11-27 20:51:00,28.8,-2.6,30.42,West,270,2.0,4.0,25,0.00,,,0.06,meteohub,2012-11-28 01:51:00,
2012-11-27 20:52:00,28.8,-2.6,30.42,NW,315,1.0,4.0,25,0.00,,,0.06,meteohub,2012-11-28 01:52:00,
2012-11-27 20:55:00,28.8,-3.5,30.42,NE,45,1.0,4.0,24,0.00,,,0.06,meteohub,2012-11-28 01:55:00,
2012-11-27 20:56:00,28.8,-2.6,30.41,NE,45,1.0,4.0,25,0.00,,,0.06,meteohub,2012-11-28 01:56:00,
2012-11-27 20:57:00,28.8,-2.6,30.41,NE,45,1.0,4.0,25,0.00,,,0.06,meteohub,2012-11-28 01:57:00,
2012-11-27 21:00:00,28.6,-2.7,30.41,North,0,1.0,3.0,25,0.00,,,0.06,meteohub,2012-11-28 02:00:00,
2012-11-27 21:01:00,28.6,-2.7,30.41,North,0,1.0,3.0,25,0.00,,,0.06,meteohub,2012-11-28 02:01:00,
2012-11-27 21:02:00,28.6,-2.7,30.41,North,0,1.0,3.0,25,0.00,,,0.06,meteohub,2012-11-28 02:02:00,
2012-11-27 21:06:00,28.6,-2.7,30.41,North,0,1.0,2.0,25,0.00,,,0.06,meteohub,2012-11-28 02:06:00,
2012-11-27 21:08:00,28.8,-2.6,30.41,WSW,248,1.0,2.0,25,0.00,,,0.06,meteohub,2012-11-28 02:08:00,
2012-11-27 21:11:00,28.8,-2.6,30.41,NW,315,2.0,2.0,25,0.00,,,0.06,meteohub,2012-11-28 02:11:00,
2012-11-27 21:12:00,28.6,-2.7,30.41,NW,315,4.0,4.0,25,0.00,,,0.06,meteohub,2012-11-28 02:12:00,
2012-11-27 21:13:00,28.6,-2.7,30.41,West,270,3.0,3.0,25,0.00,,,0.06,meteohub,2012-11-28 02:13:00,
2012-11-27 21:16:00,28.6,-2.7,30.41,West,270,0.0,4.0,25,0.00,,,0.06,meteohub,2012-11-28 02:16:00,
2012-11-27 21:18:00,28.6,-2.7,30.41,West,270,0.0,4.0,25,0.00,,,0.06,meteohub,2012-11-28 02:18:00,
2012-11-27 21:19:00,28.6,-2.7,30.41,West,270,0.0,4.0,25,0.00,,,0.06,meteohub,2012-11-28 02:19:00,
2012-11-27 21:21:00,28.6,-3.6,30.42,NE,45,1.0,4.0,24,0.00,,,0.06,meteohub,2012-11-28 02:21:00,
2012-11-27 21:22:00,28.6,-3.6,30.42,NE,45,1.0,4.0,24,0.00,,,0.06,meteohub,2012-11-28 02:22:00,
2012-11-27 21:23:00,28.6,-3.6,30.41,NE,45,1.0,4.0,24,0.00,,,0.06,meteohub,2012-11-28 02:23:00,
2012-11-27 21:24:00,28.6,-3.6,30.42,NE,45,0.0,4.0,24,0.00,,,0.06,meteohub,2012-11-28 02:24:00,
2012-11-27 21:26:00,28.6,-3.6,30.41,NW,315,3.0,4.0,24,0.00,,,0.06,meteohub,2012-11-28 02:26:00,
2012-11-27 21:27:00,28.6,-3.6,30.41,NW,315,3.0,4.0,24,0.00,,,0.06,meteohub,2012-11-28 02:27:00,
2012-11-27 21:29:00,28.8,-4.4,30.41,NW,315,2.0,4.0,23,0.00,,,0.06,meteohub,2012-11-28 02:29:00,
2012-11-27 21:30:00,28.8,-3.5,30.41,WSW,248,1.0,3.0,24,0.00,,,0.06,meteohub,2012-11-28 02:30:00,
2012-11-27 21:31:00,28.8,-3.5,30.41,WSW,248,2.0,3.0,24,0.00,,,0.06,meteohub,2012-11-28 02:31:00,
2012-11-27 21:32:00,28.8,-3.5,30.41,North,0,2.0,3.0,24,0.00,,,0.06,meteohub,2012-11-28 02:32:00,
2012-11-27 21:34:00,28.8,-3.5,30.41,West,270,2.0,3.0,24,0.00,,,0.06,meteohub,2012-11-28 02:34:00,
2012-11-27 21:36:00,28.8,-3.5,30.41,West,270,2.0,3.0,24,0.00,,,0.06,meteohub,2012-11-28 02:36:00,
2012-11-27 21:38:00,28.8,-3.5,30.42,West,270,2.0,3.0,24,0.00,,,0.06,meteohub,2012-11-28 02:38:00,
2012-11-27 21:40:00,28.8,-2.6,30.42,West,270,2.0,3.0,25,0.00,,,0.06,meteohub,2012-11-28 02:40:00,
2012-11-27 21:41:00,28.8,-2.6,30.42,WSW,248,2.0,3.0,25,0.00,,,0.06,meteohub,2012-11-28 02:41:00,
2012-11-27 21:43:00,28.6,-2.7,30.42,WSW,248,0.0,3.0,25,0.00,,,0.06,meteohub,2012-11-28 02:43:00,
2012-11-27 21:45:00,28.6,-2.7,30.42,WSW,248,1.0,2.0,25,0.00,,,0.06,meteohub,2012-11-28 02:45:00,
2012-11-27 21:46:00,28.6,-2.7,30.42,WSW,248,1.0,2.0,25,0.00,,,0.06,meteohub,2012-11-28 02:46:00,
2012-11-27 21:48:00,28.6,-2.7,30.42,WSW,248,1.0,2.0,25,0.00,,,0.06,meteohub,2012-11-28 02:48:00,
2012-11-27 21:49:00,28.6,-2.7,30.42,WSW,248,1.0,2.0,25,0.00,,,0.06,meteohub,2012-11-28 02:49:00,
2012-11-27 21:50:00,28.6,-2.7,30.42,WSW,248,1.0,2.0,25,0.00,,,0.06,meteohub,2012-11-28 02:50:00,
2012-11-27 21:51:00,28.6,-2.0,30.42,WSW,248,1.0,2.0,26,0.00,,,0.06,meteohub,2012-11-28 02:51:00,
2012-11-27 21:54:00,28.6,-2.7,30.42,West,270,1.0,2.0,25,0.00,,,0.06,meteohub,2012-11-28 02:54:00,
2012-11-27 21:56:00,28.6,-2.7,30.42,West,270,1.0,2.0,25,0.00,,,0.06,meteohub,2012-11-28 02:56:00,
2012-11-27 21:57:00,28.6,-2.0,30.42,NW,315,1.0,2.0,26,0.00,,,0.06,meteohub,2012-11-28 02:57:00,
2012-11-27 21:59:00,28.6,-2.0,30.42,NW,315,1.0,2.0,26,0.00,,,0.06,meteohub,2012-11-28 02:59:00,
2012-11-27 22:00:00,28.6,-2.0,30.42,NW,315,1.0,2.0,26,0.00,,,0.06,meteohub,2012-11-28 03:00:00,
2012-11-27 22:01:00,28.6,-2.0,30.42,NW,315,1.0,2.0,26,0.00,,,0.06,meteohub,2012-11-28 03:01:00,
2012-11-27 22:03:00,28.6,-2.0,30.42,NE,45,2.0,2.0,26,0.00,,,0.06,meteohub,2012-11-28 03:03:00,
2012-11-27 22:04:00,28.6,-2.0,30.41,NE,45,2.0,2.0,26,0.00,,,0.06,meteohub,2012-11-28 03:04:00,
2012-11-27 22:05:00,28.6,-2.0,30.41,NE,45,2.0,2.0,26,0.00,,,0.06,meteohub,2012-11-28 03:05:00,
2012-11-27 22:06:00,28.6,-2.0,30.42,North,0,1.0,2.0,26,0.00,,,0.06,meteohub,2012-11-28 03:06:00,
2012-11-27 22:08:00,28.6,-2.0,30.42,West,270,1.0,2.0,26,0.00,,,0.06,meteohub,2012-11-28 03:08:00,
2012-11-27 22:09:00,28.6,-2.0,30.42,NW,315,2.0,2.0,26,0.00,,,0.06,meteohub,2012-11-28 03:09:00,
2012-11-27 22:11:00,28.6,-2.0,30.42,WSW,248,2.0,2.0,26,0.00,,,0.06,meteohub,2012-11-28 03:11:00,
2012-11-27 22:12:00,28.6,-2.0,30.42,NE,45,2.0,2.0,26,0.00,,,0.06,meteohub,2012-11-28 03:12:00,
2012-11-27 22:14:00,28.6,-1.1,30.42,WSW,248,2.0,2.0,27,0.00,,,0.06,meteohub,2012-11-28 03:14:00,
2012-11-27 22:17:00,28.6,-1.1,30.42,WSW,248,0.0,2.0,27,0.00,,,0.06,meteohub,2012-11-28 03:17:00,
2012-11-27 22:19:00,28.6,-2.0,30.41,WSW,248,1.0,2.0,26,0.00,,,0.06,meteohub,2012-11-28 03:19:00,
2012-11-27 22:22:00,28.4,-1.3,30.41,WSW,248,1.0,2.0,27,0.00,,,0.06,meteohub,2012-11-28 03:22:00,
2012-11-27 22:23:00,28.4,-1.3,30.42,WSW,248,1.0,2.0,27,0.00,,,0.06,meteohub,2012-11-28 03:23:00,
2012-11-27 22:24:00,28.4,-1.3,30.42,WSW,248,1.0,2.0,27,0.00,,,0.06,meteohub,2012-11-28 03:24:00,
2012-11-27 22:25:00,28.4,-1.3,30.42,WSW,248,1.0,2.0,27,0.00,,,0.06,meteohub,2012-11-28 03:25:00,
2012-11-27 22:28:00,28.4,-1.3,30.42,WSW,248,0.0,2.0,27,0.00,,,0.06,meteohub,2012-11-28 03:28:00,
2012-11-27 22:31:00,28.4,-1.3,30.42,WSW,248,0.0,2.0,27,0.00,,,0.06,meteohub,2012-11-28 03:31:00,
2012-11-27 22:33:00,28.4,-1.3,30.41,WSW,248,0.0,2.0,27,0.00,,,0.06,meteohub,2012-11-28 03:33:00,
2012-11-27 22:34:00,28.4,-1.3,30.41,WSW,248,0.0,2.0,27,0.00,,,0.06,meteohub,2012-11-28 03:34:00,
2012-11-27 22:36:00,28.4,-1.3,30.42,WSW,248,0.0,1.0,27,0.00,,,0.06,meteohub,2012-11-28 03:36:00,
2012-11-27 22:38:00,28.2,-1.5,30.42,WSW,248,2.0,2.0,27,0.00,,,0.06,meteohub,2012-11-28 03:38:00,
2012-11-27 22:39:00,28.2,-1.5,30.42,WSW,248,1.0,1.0,27,0.00,,,0.06,meteohub,2012-11-28 03:39:00,
2012-11-27 22:42:00,28.4,-1.3,30.42,West,270,1.0,2.0,27,0.00,,,0.06,meteohub,2012-11-28 03:42:00,
2012-11-27 22:43:00,28.4,-1.3,30.42,South,180,2.0,2.0,27,0.00,,,0.06,meteohub,2012-11-28 03:43:00,
2012-11-27 22:44:00,28.4,-1.3,30.42,South,180,2.0,2.0,27,0.00,,,0.06,meteohub,2012-11-28 03:44:00,
2012-11-27 22:45:00,28.4,-2.2,30.42,South,180,2.0,2.0,26,0.00,,,0.06,meteohub,2012-11-28 03:45:00,
2012-11-27 22:48:00,28.6,-2.0,30.41,WSW,248,2.0,2.0,26,0.00,,,0.06,meteohub,2012-11-28 03:48:00,
2012-11-27 22:50:00,28.6,-2.0,30.42,West,270,2.0,2.0,26,0.00,,,0.06,meteohub,2012-11-28 03:50:00,
2012-11-27 22:51:00,28.6,-2.7,30.42,NW,315,2.0,2.0,25,0.00,,,0.06,meteohub,2012-11-28 03:51:00,
2012-11-27 22:53:00,28.6,-2.7,30.42,East,90,1.0,2.0,25,0.00,,,0.06,meteohub,2012-11-28 03:53:00,
2012-11-27 22:54:00,28.6,-2.7,30.42,East,90,0.0,2.0,25,0.00,,,0.06,meteohub,2012-11-28 03:54:00,
2012-11-27 22:55:00,28.6,-2.0,30.41,East,90,0.0,2.0,26,0.00,,,0.06,meteohub,2012-11-28 03:55:00,
2012-11-27 22:56:00,28.6,-2.0,30.42,NW,315,2.0,2.0,26,0.00,,,0.06,meteohub,2012-11-28 03:56:00,
2012-11-27 22:59:00,28.6,-2.0,30.42,NW,315,1.0,2.0,26,0.00,,,0.06,meteohub,2012-11-28 03:59:00,
2012-11-27 23:00:00,28.6,-2.0,30.41,NW,315,1.0,2.0,26,0.00,,,0.06,meteohub,2012-11-28 04:00:00,
2012-11-27 23:01:00,28.6,-2.0,30.42,NW,315,1.0,2.0,26,0.00,,,0.06,meteohub,2012-11-28 04:01:00,
2012-11-27 23:02:00,28.6,-2.0,30.41,NW,315,1.0,2.0,26,0.00,,,0.06,meteohub,2012-11-28 04:02:00,
2012-11-27 23:05:00,28.6,-2.0,30.41,NW,315,1.0,2.0,26,0.00,,,0.06,meteohub,2012-11-28 04:05:00,
2012-11-27 23:06:00,28.6,-2.0,30.42,NW,315,1.0,2.0,26,0.00,,,0.06,meteohub,2012-11-28 04:06:00,
2012-11-27 23:08:00,28.4,-2.2,30.41,NW,315,0.0,2.0,26,0.00,,,0.06,meteohub,2012-11-28 04:08:00,
2012-11-27 23:10:00,28.4,-2.2,30.41,NW,315,0.0,2.0,26,0.00,,,0.06,meteohub,2012-11-28 04:10:00,
2012-11-27 23:12:00,28.2,-2.2,30.41,NW,315,0.0,2.0,26,0.00,,,0.06,meteohub,2012-11-28 04:12:00,
2012-11-27 23:13:00,28.4,-2.2,30.41,West,270,1.0,2.0,26,0.00,,,0.06,meteohub,2012-11-28 04:13:00,
2012-11-27 23:15:00,28.4,-2.2,30.40,West,270,0.0,1.0,26,0.00,,,0.06,meteohub,2012-11-28 04:15:00,
2012-11-27 23:17:00,28.2,-3.1,30.41,NW,315,1.0,1.0,25,0.00,,,0.06,meteohub,2012-11-28 04:17:00,
2012-11-27 23:18:00,28.2,-3.1,30.41,NW,315,1.0,1.0,25,0.00,,,0.06,meteohub,2012-11-28 04:18:00,
2012-11-27 23:20:00,28.2,-3.1,30.40,West,270,0.0,1.0,25,0.00,,,0.06,meteohub,2012-11-28 04:20:00,
2012-11-27 23:23:00,28.2,-2.2,30.40,WSW,248,1.0,1.0,26,0.00,,,0.06,meteohub,2012-11-28 04:23:00,
2012-11-27 23:24:00,28.2,-2.2,30.40,WSW,248,2.0,2.0,26,0.00,,,0.06,meteohub,2012-11-28 04:24:00,
2012-11-27 23:27:00,28.2,-2.2,30.41,West,270,2.0,2.0,26,0.00,,,0.06,meteohub,2012-11-28 04:27:00,
2012-11-27 23:28:00,28.2,-2.2,30.41,West,270,0.0,2.0,26,0.00,,,0.06,meteohub,2012-11-28 04:28:00,
2012-11-27 23:29:00,28.2,-2.2,30.41,West,270,0.0,2.0,26,0.00,,,0.06,meteohub,2012-11-28 04:29:00,
2012-11-27 23:32:00,28.2,-2.2,30.41,West,270,0.0,2.0,26,0.00,,,0.06,meteohub,2012-11-28 04:32:00,
2012-11-27 23:34:00,28.2,-2.2,30.41,East,90,2.0,2.0,26,0.00,,,0.06,meteohub,2012-11-28 04:34:00,
2012-11-27 23:35:00,28.2,-2.2,30.41,East,90,1.0,2.0,26,0.00,,,0.06,meteohub,2012-11-28 04:35:00,
2012-11-27 23:39:00,28.2,-1.5,30.41,East,90,1.0,2.0,27,0.00,,,0.06,meteohub,2012-11-28 04:39:00,
2012-11-27 23:40:00,28.2,-1.5,30.40,East,90,1.0,2.0,27,0.00,,,0.06,meteohub,2012-11-28 04:40:00,
2012-11-27 23:41:00,28.2,-1.5,30.41,East,90,1.0,2.0,27,0.00,,,0.06,meteohub,2012-11-28 04:41:00,
2012-11-27 23:44:00,28.2,-2.2,30.41,East,90,0.0,2.0,26,0.00,,,0.06,meteohub,2012-11-28 04:44:00,
2012-11-27 23:45:00,28.2,-2.2,30.40,East,90,0.0,2.0,26,0.00,,,0.06,meteohub,2012-11-28 04:45:00,
2012-11-27 23:46:00,28.2,-2.2,30.40,East,90,0.0,2.0,26,0.00,,,0.06,meteohub,2012-11-28 04:46:00,
2012-11-27 23:50:00,28.2,-2.2,30.40,East,90,1.0,2.0,26,0.00,,,0.06,meteohub,2012-11-28 04:50:00,
2012-11-27 23:51:00,28.2,-2.2,30.40,East,90,0.0,2.0,26,0.00,,,0.06,meteohub,2012-11-28 04:51:00,
2012-11-27 23:52:00,28.2,-2.2,30.40,East,90,0.0,2.0,26,0.00,,,0.06,meteohub,2012-11-28 04:52:00,
2012-11-27 23:56:00,28.2,-2.2,30.40,NW,315,1.0,2.0,26,0.00,,,0.06,meteohub,2012-11-28 04:56:00,
2012-11-27 23:57:00,28.2,-2.2,30.40,NW,315,1.0,2.0,26,0.00,,,0.06,meteohub,2012-11-28 04:57:00,